Observation data for New Home on 09/13/2017      Previous  Date  Next       Current Mesonet Observations  Soil Data  Daily Summary Page  Observations in Plain Language
KNH1 130500Z 10004KT 20/11 A2997 RMK A01 T02040112  RH  056%=      5-min Rain = 0
KNH1 130501Z 10005KT 20/11 A2997 RMK A01 T02040112  RH  056%=      5-min Rain = 0
KNH1 130502Z 10004KT 20/11 A2997 RMK A01 T02040113  RH  056%=      5-min Rain = 0
KNH1 130503Z 10004KT 20/11 A2997 RMK A01 T02030112  RH  056%=      5-min Rain = 0
KNH1 130504Z 10003KT 20/11 A2997 RMK A01 T02030112  RH  056%=      5-min Rain = 0
KNH1 130505Z 11004KT 20/11 A2997 RMK A01 T02020113  RH  056%=      5-min Rain = 0
KNH1 130506Z 10004KT 20/11 A2997 RMK A01 T02020113  RH  057%=      5-min Rain = 0
KNH1 130507Z 10004KT 20/11 A2997 RMK A01 T02010113  RH  057%=      5-min Rain = 0
KNH1 130508Z 10004KT 20/11 A2997 RMK A01 T02000113  RH  057%=      5-min Rain = 0
KNH1 130509Z 10005KT 20/11 A2997 RMK A01 T02000113  RH  057%=      5-min Rain = 0
KNH1 130510Z 10005KT 20/11 A2997 RMK A01 T01990114  RH  058%=      5-min Rain = 0
KNH1 130511Z 10005KT 20/11 A2997 RMK A01 T01990114  RH  058%=      5-min Rain = 0
KNH1 130512Z 09004KT 20/11 A2997 RMK A01 T01990113  RH  058%=      5-min Rain = 0
KNH1 130513Z 09004KT 20/11 A2997 RMK A01 T01980114  RH  058%=      5-min Rain = 0
KNH1 130514Z 09004KT 20/11 A2997 RMK A01 T01980113  RH  058%=      5-min Rain = 0
KNH1 130515Z 09004KT 20/11 A2997 RMK A01 T01980113  RH  058%=      5-min Rain = 0
KNH1 130516Z 09004KT 20/11 A2997 RMK A01 T01980113  RH  058%=      5-min Rain = 0
KNH1 130517Z 09004KT 20/11 A2997 RMK A01 T01980114  RH  058%=      5-min Rain = 0
KNH1 130518Z 09004KT 20/11 A2997 RMK A01 T01970113  RH  058%=      5-min Rain = 0
KNH1 130519Z 09004KT 20/11 A2997 RMK A01 T01970113  RH  058%=      5-min Rain = 0
KNH1 130520Z 09004KT 20/11 A2997 RMK A01 T01970113  RH  058%=      5-min Rain = 0
KNH1 130521Z 09004KT 20/11 A2997 RMK A01 T01970113  RH  058%=      5-min Rain = 0
KNH1 130522Z 09004KT 20/11 A2997 RMK A01 T01970113  RH  058%=      5-min Rain = 0
KNH1 130523Z 10004KT 20/11 A2997 RMK A01 T01970113  RH  059%=      5-min Rain = 0
KNH1 130524Z 10005KT 20/11 A2997 RMK A01 T01960113  RH  059%=      5-min Rain = 0
KNH1 130525Z 10004KT 20/11 A2997 RMK A01 T01960113  RH  059%=      5-min Rain = 0
KNH1 130526Z 10003KT 20/11 A2997 RMK A01 T01960113  RH  059%=      5-min Rain = 0
KNH1 130527Z 11003KT 20/11 A2997 RMK A01 T01960113  RH  059%=      5-min Rain = 0
KNH1 130528Z 11003KT 20/11 A2997 RMK A01 T01950113  RH  059%=      5-min Rain = 0
KNH1 130529Z 11003KT 19/11 A2997 RMK A01 T01940113  RH  059%=      5-min Rain = 0
KNH1 130530Z 11004KT 19/11 A2997 RMK A01 T01940113  RH  059%=      5-min Rain = 0
KNH1 130531Z 11004KT 19/11 A2997 RMK A01 T01930113  RH  060%=      5-min Rain = 0
KNH1 130532Z 10004KT 19/11 A2997 RMK A01 T01920113  RH  060%=      5-min Rain = 0
KNH1 130533Z 10004KT 19/11 A2997 RMK A01 T01920114  RH  060%=      5-min Rain = 0
KNH1 130534Z 10005KT 19/11 A2997 RMK A01 T01910113  RH  061%=      5-min Rain = 0
KNH1 130535Z 09005KT 19/11 A2997 RMK A01 T01910114  RH  061%=      5-min Rain = 0
KNH1 130536Z 09006KT 19/11 A2997 RMK A01 T01910113  RH  061%=      5-min Rain = 0
KNH1 130537Z 09005KT 19/11 A2997 RMK A01 T01900112  RH  060%=      5-min Rain = 0
KNH1 130538Z 10005KT 19/11 A2997 RMK A01 T01910112  RH  060%=      5-min Rain = 0
KNH1 130539Z 10005KT 19/11 A2997 RMK A01 T01910112  RH  060%=      5-min Rain = 0
KNH1 130540Z 10004KT 19/11 A2997 RMK A01 T01910112  RH  060%=      5-min Rain = 0
KNH1 130541Z 10004KT 19/11 A2997 RMK A01 T01910112  RH  060%=      5-min Rain = 0
KNH1 130542Z 11004KT 19/11 A2997 RMK A01 T01920112  RH  060%=      5-min Rain = 0
KNH1 130543Z 11003KT 19/11 A2997 RMK A01 T01910112  RH  060%=      5-min Rain = 0
KNH1 130544Z 11003KT 19/11 A2997 RMK A01 T01910112  RH  060%=      5-min Rain = 0
KNH1 130545Z 11003KT 19/11 A2997 RMK A01 T01900112  RH  061%=      5-min Rain = 0
KNH1 130546Z 11003KT 19/11 A2997 RMK A01 T01890112  RH  061%=      5-min Rain = 0
KNH1 130547Z 11003KT 19/11 A2997 RMK A01 T01890112  RH  061%=      5-min Rain = 0
KNH1 130548Z 10003KT 19/11 A2997 RMK A01 T01880112  RH  061%=      5-min Rain = 0
KNH1 130549Z 10003KT 19/11 A2997 RMK A01 T01880113  RH  062%=      5-min Rain = 0
KNH1 130550Z 10003KT 19/11 A2997 RMK A01 T01870112  RH  062%=      5-min Rain = 0
KNH1 130551Z 11003KT 19/11 A2997 RMK A01 T01870112  RH  062%=      5-min Rain = 0
KNH1 130552Z 10003KT 19/11 A2997 RMK A01 T01860112  RH  062%=      5-min Rain = 0
KNH1 130553Z 11004KT 19/11 A2997 RMK A01 T01860112  RH  062%=      5-min Rain = 0
KNH1 130554Z 11005KT 19/11 A2997 RMK A01 T01860112  RH  062%=      5-min Rain = 0
KNH1 130555Z 11004KT 19/11 A2997 RMK A01 T01860111  RH  062%=      5-min Rain = 0
KNH1 130556Z 11005KT 19/11 A2997 RMK A01 T01850111  RH  062%=      5-min Rain = 0
KNH1 130557Z 11005KT 19/11 A2997 RMK A01 T01850110  RH  062%=      5-min Rain = 0
KNH1 130558Z 11005KT 19/11 A2997 RMK A01 T01850110  RH  062%=      5-min Rain = 0
KNH1 130559Z 11006KT 19/11 A2997 RMK A01 T01860110  RH  061%=      5-min Rain = 0
KNH1 130600Z 11005KT 19/11 A2997 RMK A01 T01860110  RH  061%=      5-min Rain = 0
KNH1 130601Z 11004KT 19/11 A2997 RMK A01 T01860110  RH  061%=      5-min Rain = 0
KNH1 130602Z 11003KT 19/11 A2996 RMK A01 T01860111  RH  061%=      5-min Rain = 0
KNH1 130603Z 11004KT 19/11 A2996 RMK A01 T01860111  RH  062%=      5-min Rain = 0
KNH1 130604Z 11004KT 19/11 A2996 RMK A01 T01850111  RH  062%=      5-min Rain = 0
KNH1 130605Z 11004KT 18/11 A2996 RMK A01 T01840111  RH  062%=      5-min Rain = 0
KNH1 130606Z 11004KT 18/11 A2996 RMK A01 T01840111  RH  063%=      5-min Rain = 0
KNH1 130607Z 11004KT 18/11 A2996 RMK A01 T01840111  RH  063%=      5-min Rain = 0
KNH1 130608Z 10005KT 18/11 A2996 RMK A01 T01830111  RH  063%=      5-min Rain = 0
KNH1 130609Z 11004KT 18/11 A2996 RMK A01 T01830111  RH  063%=      5-min Rain = 0
KNH1 130610Z 11004KT 18/11 A2996 RMK A01 T01830112  RH  063%=      5-min Rain = 0
KNH1 130611Z 11005KT 18/11 A2996 RMK A01 T01830112  RH  063%=      5-min Rain = 0
KNH1 130612Z 11005KT 18/11 A2996 RMK A01 T01830111  RH  063%=      5-min Rain = 0
KNH1 130613Z 12005KT 18/11 A2996 RMK A01 T01830111  RH  063%=      5-min Rain = 0
KNH1 130614Z 12005KT 18/11 A2996 RMK A01 T01830111  RH  063%=      5-min Rain = 0
KNH1 130615Z 12005KT 18/11 A2996 RMK A01 T01830111  RH  063%=      5-min Rain = 0
KNH1 130616Z 12005KT 18/11 A2996 RMK A01 T01830111  RH  063%=      5-min Rain = 0
KNH1 130617Z 12006KT 18/11 A2996 RMK A01 T01830111  RH  063%=      5-min Rain = 0
KNH1 130618Z 12006KT 18/11 A2996 RMK A01 T01830111  RH  063%=      5-min Rain = 0
KNH1 130619Z 12006KT 18/11 A2996 RMK A01 T01830111  RH  063%=      5-min Rain = 0
KNH1 130620Z 12006KT 18/11 A2996 RMK A01 T01830111  RH  063%=      5-min Rain = 0
KNH1 130621Z 11006KT 18/11 A2996 RMK A01 T01830110  RH  062%=      5-min Rain = 0
KNH1 130622Z 11006KT 18/11 A2996 RMK A01 T01840110  RH  062%=      5-min Rain = 0
KNH1 130623Z 12006KT 19/11 A2996 RMK A01 T01850110  RH  062%=      5-min Rain = 0
KNH1 130624Z 11006KT 19/11 A2996 RMK A01 T01860110  RH  061%=      5-min Rain = 0
KNH1 130625Z 12006KT 19/11 A2996 RMK A01 T01860110  RH  061%=      5-min Rain = 0
KNH1 130626Z 12005KT 19/11 A2996 RMK A01 T01860110  RH  061%=      5-min Rain = 0
KNH1 130627Z 12005KT 19/11 A2996 RMK A01 T01860110  RH  061%=      5-min Rain = 0
KNH1 130628Z 12005KT 19/11 A2996 RMK A01 T01860110  RH  061%=      5-min Rain = 0
KNH1 130629Z 12004KT 19/11 A2996 RMK A01 T01860110  RH  061%=      5-min Rain = 0
KNH1 130630Z 12004KT 19/11 A2996 RMK A01 T01870111  RH  061%=      5-min Rain = 0
KNH1 130631Z 12004KT 19/11 A2996 RMK A01 T01860111  RH  061%=      5-min Rain = 0
KNH1 130632Z 12004KT 19/11 A2996 RMK A01 T01860110  RH  061%=      5-min Rain = 0
KNH1 130633Z 12004KT 19/11 A2996 RMK A01 T01860110  RH  061%=      5-min Rain = 0
KNH1 130634Z 12005KT 19/11 A2996 RMK A01 T01860110  RH  061%=      5-min Rain = 0
KNH1 130635Z 12004KT 19/11 A2996 RMK A01 T01860110  RH  061%=      5-min Rain = 0
KNH1 130636Z 11005KT 19/11 A2996 RMK A01 T01860110  RH  061%=      5-min Rain = 0
KNH1 130637Z 11005KT 19/11 A2996 RMK A01 T01870110  RH  061%=      5-min Rain = 0
KNH1 130638Z 11005KT 19/11 A2996 RMK A01 T01870110  RH  061%=      5-min Rain = 0
KNH1 130639Z 11005KT 19/11 A2996 RMK A01 T01870110  RH  061%=      5-min Rain = 0
KNH1 130640Z 12004KT 19/11 A2996 RMK A01 T01880110  RH  061%=      5-min Rain = 0
KNH1 130641Z 13004KT 19/11 A2996 RMK A01 T01880110  RH  061%=      5-min Rain = 0
KNH1 130642Z 12003KT 19/11 A2996 RMK A01 T01880110  RH  061%=      5-min Rain = 0
KNH1 130643Z 13004KT 19/11 A2996 RMK A01 T01880110  RH  061%=      5-min Rain = 0
KNH1 130644Z 13004KT 19/11 A2996 RMK A01 T01880111  RH  061%=      5-min Rain = 0
KNH1 130645Z 13003KT 19/11 A2996 RMK A01 T01880110  RH  061%=      5-min Rain = 0
KNH1 130646Z 13003KT 19/11 A2996 RMK A01 T01880110  RH  061%=      5-min Rain = 0
KNH1 130647Z 13003KT 19/11 A2996 RMK A01 T01880110  RH  061%=      5-min Rain = 0
KNH1 130648Z 13003KT 19/11 A2996 RMK A01 T01880110  RH  061%=      5-min Rain = 0
KNH1 130649Z 13003KT 19/11 A2996 RMK A01 T01890110  RH  060%=      5-min Rain = 0
KNH1 130650Z 13003KT 19/11 A2996 RMK A01 T01890110  RH  060%=      5-min Rain = 0
KNH1 130651Z 14003KT 19/11 A2996 RMK A01 T01890110  RH  060%=      5-min Rain = 0
KNH1 130652Z 13004KT 19/11 A2996 RMK A01 T01890110  RH  060%=      5-min Rain = 0
KNH1 130653Z 13004KT 19/11 A2996 RMK A01 T01900111  RH  060%=      5-min Rain = 0
KNH1 130654Z 13003KT 19/11 A2996 RMK A01 T01900111  RH  060%=      5-min Rain = 0
KNH1 130655Z 13003KT 19/11 A2996 RMK A01 T01900111  RH  060%=      5-min Rain = 0
KNH1 130656Z 13003KT 19/11 A2996 RMK A01 T01900111  RH  060%=      5-min Rain = 0
KNH1 130657Z 12004KT 19/11 A2996 RMK A01 T01910111  RH  060%=      5-min Rain = 0
KNH1 130658Z 11004KT 19/11 A2996 RMK A01 T01910111  RH  060%=      5-min Rain = 0
KNH1 130659Z 11003KT 19/11 A2996 RMK A01 T01920111  RH  059%=      5-min Rain = 0
KNH1 130700Z 11003KT 19/11 A2996 RMK A01 T01920111  RH  059%=      5-min Rain = 0
KNH1 130701Z 12002KT 19/11 A2996 RMK A01 T01920111  RH  059%=      5-min Rain = 0
KNH1 130702Z 11002KT 19/11 A2997 RMK A01 T01930111  RH  059%=      5-min Rain = 0
KNH1 130703Z 12001KT 19/11 A2997 RMK A01 T01930111  RH  059%=      5-min Rain = 0
KNH1 130704Z 13001KT 19/11 A2997 RMK A01 T01930111  RH  059%=      5-min Rain = 0
KNH1 130705Z 13001KT 19/11 A2997 RMK A01 T01940111  RH  059%=      5-min Rain = 0
KNH1 130706Z 11001KT 19/11 A2997 RMK A01 T01940111  RH  059%=      5-min Rain = 0
KNH1 130707Z 11001KT 19/11 A2997 RMK A01 T01940111  RH  059%=      5-min Rain = 0
KNH1 130708Z 11002KT 19/11 A2997 RMK A01 T01940111  RH  059%=      5-min Rain = 0
KNH1 130709Z 12001KT 20/11 A2997 RMK A01 T01950111  RH  058%=      5-min Rain = 0
KNH1 130710Z 12002KT 20/11 A2997 RMK A01 T01950111  RH  058%=      5-min Rain = 0
KNH1 130711Z 12002KT 20/11 A2997 RMK A01 T01950111  RH  059%=      5-min Rain = 0
KNH1 130712Z 11002KT 19/11 A2997 RMK A01 T01940111  RH  059%=      5-min Rain = 0
KNH1 130713Z 11002KT 20/11 A2997 RMK A01 T01950112  RH  059%=      5-min Rain = 0
KNH1 130714Z 11002KT 20/11 A2997 RMK A01 T01950112  RH  059%=      5-min Rain = 0
KNH1 130715Z 12002KT 20/11 A2996 RMK A01 T01950111  RH  058%=      5-min Rain = 0
KNH1 130716Z 12002KT 20/11 A2996 RMK A01 T01950110  RH  058%=      5-min Rain = 0
KNH1 130717Z 12003KT 20/11 A2996 RMK A01 T01950109  RH  058%=      5-min Rain = 0
KNH1 130718Z 12003KT 20/11 A2996 RMK A01 T01950109  RH  058%=      5-min Rain = 0
KNH1 130719Z 12003KT 20/11 A2996 RMK A01 T01950109  RH  057%=      5-min Rain = 0
KNH1 130720Z 13003KT 20/11 A2996 RMK A01 T01950109  RH  057%=      5-min Rain = 0
KNH1 130721Z 12003KT 20/11 A2996 RMK A01 T01950109  RH  058%=      5-min Rain = 0
KNH1 130722Z 12003KT 20/11 A2996 RMK A01 T01950109  RH  057%=      5-min Rain = 0
KNH1 130723Z 12002KT 20/11 A2996 RMK A01 T01960109  RH  057%=      5-min Rain = 0
KNH1 130724Z 13002KT 20/11 A2996 RMK A01 T01950109  RH  057%=      5-min Rain = 0
KNH1 130725Z 13002KT 20/11 A2996 RMK A01 T01960109  RH  057%=      5-min Rain = 0
KNH1 130726Z 13002KT 20/11 A2996 RMK A01 T01960109  RH  057%=      5-min Rain = 0
KNH1 130727Z 13002KT 20/11 A2996 RMK A01 T01960110  RH  057%=      5-min Rain = 0
KNH1 130728Z 14002KT 20/11 A2996 RMK A01 T01960109  RH  057%=      5-min Rain = 0
KNH1 130729Z 14001KT 20/11 A2996 RMK A01 T01960110  RH  058%=      5-min Rain = 0
KNH1 130730Z 14001KT 20/11 A2997 RMK A01 T01950110  RH  058%=      5-min Rain = 0
KNH1 130731Z 14001KT 20/11 A2997 RMK A01 T01950111  RH  058%=      5-min Rain = 0
KNH1 130732Z 14002KT 20/11 A2996 RMK A01 T01950110  RH  058%=      5-min Rain = 0
KNH1 130733Z 13002KT 20/11 A2996 RMK A01 T01950109  RH  058%=      5-min Rain = 0
KNH1 130734Z 12002KT 20/11 A2996 RMK A01 T01950110  RH  058%=      5-min Rain = 0
KNH1 130735Z 11003KT 20/11 A2996 RMK A01 T01950111  RH  058%=      5-min Rain = 0
KNH1 130736Z 11003KT 20/11 A2996 RMK A01 T01950112  RH  059%=      5-min Rain = 0
KNH1 130737Z 12003KT 19/11 A2996 RMK A01 T01940112  RH  059%=      5-min Rain = 0
KNH1 130738Z 12004KT 19/11 A2996 RMK A01 T01940111  RH  059%=      5-min Rain = 0
KNH1 130739Z 12004KT 19/11 A2996 RMK A01 T01940110  RH  058%=      5-min Rain = 0
KNH1 130740Z 12003KT 19/11 A2996 RMK A01 T01940109  RH  058%=      5-min Rain = 0
KNH1 130741Z 13003KT 19/11 A2996 RMK A01 T01940109  RH  058%=      5-min Rain = 0
KNH1 130742Z 13003KT 19/11 A2996 RMK A01 T01940109  RH  058%=      5-min Rain = 0
KNH1 130743Z 13004KT 19/11 A2996 RMK A01 T01940110  RH  058%=      5-min Rain = 0
KNH1 130744Z 13004KT 19/11 A2995 RMK A01 T01940111  RH  059%=      5-min Rain = 0
KNH1 130745Z 12004KT 19/11 A2995 RMK A01 T01940112  RH  059%=      5-min Rain = 0
KNH1 130746Z 12004KT 19/11 A2995 RMK A01 T01940113  RH  059%=      5-min Rain = 0
KNH1 130747Z 13004KT 19/11 A2995 RMK A01 T01930113  RH  060%=      5-min Rain = 0
KNH1 130748Z 13004KT 19/11 A2995 RMK A01 T01920113  RH  060%=      5-min Rain = 0
KNH1 130749Z 13004KT 19/11 A2995 RMK A01 T01920113  RH  060%=      5-min Rain = 0
KNH1 130750Z 12005KT 19/11 A2995 RMK A01 T01910114  RH  061%=      5-min Rain = 0
KNH1 130751Z 13005KT 19/11 A2995 RMK A01 T01900114  RH  061%=      5-min Rain = 0
KNH1 130752Z 13005KT 19/11 A2995 RMK A01 T01900114  RH  061%=      5-min Rain = 0
KNH1 130753Z 13005KT 19/11 A2995 RMK A01 T01890114  RH  062%=      5-min Rain = 0
KNH1 130754Z 12005KT 19/11 A2995 RMK A01 T01880113  RH  062%=      5-min Rain = 0
KNH1 130755Z 12005KT 19/11 A2995 RMK A01 T01880113  RH  062%=      5-min Rain = 0
KNH1 130756Z 12005KT 19/11 A2995 RMK A01 T01870112  RH  062%=      5-min Rain = 0
KNH1 130757Z 13004KT 19/11 A2995 RMK A01 T01870111  RH  061%=      5-min Rain = 0
KNH1 130758Z 13004KT 19/11 A2995 RMK A01 T01860111  RH  062%=      5-min Rain = 0
KNH1 130759Z 12004KT 19/11 A2995 RMK A01 T01860111  RH  062%=      5-min Rain = 0
KNH1 130800Z 12004KT 19/11 A2995 RMK A01 T01850110  RH  062%=      5-min Rain = 0
KNH1 130801Z 12004KT 19/11 A2995 RMK A01 T01850110  RH  062%=      5-min Rain = 0
KNH1 130802Z 12004KT 19/11 A2995 RMK A01 T01850110  RH  062%=      5-min Rain = 0
KNH1 130803Z 12004KT 19/11 A2995 RMK A01 T01850110  RH  062%=      5-min Rain = 0
KNH1 130804Z 13004KT 19/11 A2995 RMK A01 T01850110  RH  062%=      5-min Rain = 0
KNH1 130805Z 13003KT 18/11 A2994 RMK A01 T01840110  RH  062%=      5-min Rain = 0
KNH1 130806Z 12004KT 18/11 A2994 RMK A01 T01840110  RH  062%=      5-min Rain = 0
KNH1 130807Z 12004KT 18/11 A2994 RMK A01 T01840109  RH  062%=      5-min Rain = 0
KNH1 130808Z 12004KT 18/11 A2994 RMK A01 T01830109  RH  062%=      5-min Rain = 0
KNH1 130809Z 12005KT 18/11 A2994 RMK A01 T01830108  RH  062%=      5-min Rain = 0
KNH1 130810Z 12005KT 18/11 A2994 RMK A01 T01840108  RH  061%=      5-min Rain = 0
KNH1 130811Z 12005KT 18/11 A2994 RMK A01 T01840108  RH  061%=      5-min Rain = 0
KNH1 130812Z 12005KT 18/11 A2994 RMK A01 T01840108  RH  061%=      5-min Rain = 0
KNH1 130813Z 12004KT 18/11 A2994 RMK A01 T01840108  RH  061%=      5-min Rain = 0
KNH1 130814Z 12005KT 18/11 A2994 RMK A01 T01840108  RH  061%=      5-min Rain = 0
KNH1 130815Z 12005KT 18/11 A2994 RMK A01 T01840108  RH  061%=      5-min Rain = 0
KNH1 130816Z 12004KT 18/11 A2994 RMK A01 T01830108  RH  062%=      5-min Rain = 0
KNH1 130817Z 12004KT 18/11 A2994 RMK A01 T01830108  RH  062%=      5-min Rain = 0
KNH1 130818Z 12005KT 18/11 A2994 RMK A01 T01820108  RH  062%=      5-min Rain = 0
KNH1 130819Z 12005KT 18/11 A2994 RMK A01 T01830108  RH  062%=      5-min Rain = 0
KNH1 130820Z 12005KT 18/11 A2994 RMK A01 T01820108  RH  062%=      5-min Rain = 0
KNH1 130821Z 12005KT 18/11 A2994 RMK A01 T01820108  RH  062%=      5-min Rain = 0
KNH1 130822Z 12005KT 18/11 A2994 RMK A01 T01820107  RH  062%=      5-min Rain = 0
KNH1 130823Z 12005KT 18/11 A2994 RMK A01 T01820108  RH  062%=      5-min Rain = 0
KNH1 130824Z 13004KT 18/11 A2994 RMK A01 T01810107  RH  062%=      5-min Rain = 0
KNH1 130825Z 12004KT 18/11 A2994 RMK A01 T01810107  RH  062%=      5-min Rain = 0
KNH1 130826Z 13005KT 18/11 A2994 RMK A01 T01810107  RH  062%=      5-min Rain = 0
KNH1 130827Z 12005KT 18/11 A2994 RMK A01 T01810107  RH  062%=      5-min Rain = 0
KNH1 130828Z 12005KT 18/11 A2994 RMK A01 T01810106  RH  061%=      5-min Rain = 0
KNH1 130829Z 12006KT 18/11 A2994 RMK A01 T01820106  RH  061%=      5-min Rain = 0
KNH1 130830Z 11007KT 18/11 A2994 RMK A01 T01820106  RH  061%=      5-min Rain = 0
KNH1 130831Z 12007KT 18/11 A2993 RMK A01 T01830106  RH  061%=      5-min Rain = 0
KNH1 130832Z 12006KT 18/11 A2993 RMK A01 T01830106  RH  061%=      5-min Rain = 0
KNH1 130833Z 12006KT 18/11 A2993 RMK A01 T01830106  RH  061%=      5-min Rain = 0
KNH1 130834Z 12005KT 18/11 A2993 RMK A01 T01830106  RH  061%=      5-min Rain = 0
KNH1 130835Z 12005KT 18/11 A2993 RMK A01 T01830105  RH  060%=      5-min Rain = 0
KNH1 130836Z 12005KT 18/11 A2993 RMK A01 T01830105  RH  060%=      5-min Rain = 0
KNH1 130837Z 12006KT 18/11 A2993 RMK A01 T01830105  RH  060%=      5-min Rain = 0
KNH1 130838Z 11006KT 18/10 A2993 RMK A01 T01830104  RH  060%=      5-min Rain = 0
KNH1 130839Z 12006KT 18/10 A2993 RMK A01 T01840104  RH  060%=      5-min Rain = 0
KNH1 130840Z 12005KT 18/11 A2993 RMK A01 T01840105  RH  060%=      5-min Rain = 0
KNH1 130841Z 12006KT 18/11 A2993 RMK A01 T01840105  RH  060%=      5-min Rain = 0
KNH1 130842Z 12006KT 18/10 A2993 RMK A01 T01840104  RH  060%=      5-min Rain = 0
KNH1 130843Z 11006KT 18/10 A2993 RMK A01 T01840104  RH  060%=      5-min Rain = 0
KNH1 130844Z 12006KT 18/10 A2993 RMK A01 T01840104  RH  060%=      5-min Rain = 0
KNH1 130845Z 12006KT 18/10 A2993 RMK A01 T01840104  RH  060%=      5-min Rain = 0
KNH1 130846Z 12005KT 18/10 A2993 RMK A01 T01830104  RH  060%=      5-min Rain = 0
KNH1 130847Z 12005KT 18/11 A2993 RMK A01 T01830105  RH  060%=      5-min Rain = 0
KNH1 130848Z 12004KT 18/11 A2993 RMK A01 T01830105  RH  060%=      5-min Rain = 0
KNH1 130849Z 12004KT 18/11 A2993 RMK A01 T01820105  RH  061%=      5-min Rain = 0
KNH1 130850Z 12004KT 18/11 A2993 RMK A01 T01810105  RH  061%=      5-min Rain = 0
KNH1 130851Z 11005KT 18/11 A2993 RMK A01 T01800105  RH  061%=      5-min Rain = 0
KNH1 130852Z 12006KT 18/10 A2993 RMK A01 T01800104  RH  061%=      5-min Rain = 0
KNH1 130853Z 11006KT 18/10 A2993 RMK A01 T01790104  RH  061%=      5-min Rain = 0
KNH1 130854Z 11006KT 18/10 A2992 RMK A01 T01800104  RH  061%=      5-min Rain = 0
KNH1 130855Z 11007KT 18/10 A2992 RMK A01 T01800104  RH  061%=      5-min Rain = 0
KNH1 130856Z 12006KT 18/10 A2992 RMK A01 T01800104  RH  061%=      5-min Rain = 0
KNH1 130857Z 12006KT 18/10 A2992 RMK A01 T01800104  RH  061%=      5-min Rain = 0
KNH1 130858Z 12006KT 18/10 A2992 RMK A01 T01800104  RH  061%=      5-min Rain = 0
KNH1 130859Z 12006KT 18/11 A2992 RMK A01 T01800105  RH  061%=      5-min Rain = 0
KNH1 130900Z 12006KT 18/10 A2992 RMK A01 T01800104  RH  061%=      5-min Rain = 0
KNH1 130901Z 12005KT 18/10 A2992 RMK A01 T01800104  RH  061%=      5-min Rain = 0
KNH1 130902Z 11006KT 18/10 A2992 RMK A01 T01800104  RH  061%=      5-min Rain = 0
KNH1 130903Z 11006KT 18/10 A2992 RMK A01 T01800103  RH  061%=      5-min Rain = 0
KNH1 130904Z 11006KT 18/10 A2992 RMK A01 T01810103  RH  061%=      5-min Rain = 0
KNH1 130905Z 11006KT 18/10 A2992 RMK A01 T01810104  RH  060%=      5-min Rain = 0
KNH1 130906Z 11006KT 18/10 A2992 RMK A01 T01810104  RH  060%=      5-min Rain = 0
KNH1 130907Z 10006KT 18/10 A2992 RMK A01 T01810104  RH  061%=      5-min Rain = 0
KNH1 130908Z 11006KT 18/10 A2992 RMK A01 T01810104  RH  061%=      5-min Rain = 0
KNH1 130909Z 11006KT 18/10 A2992 RMK A01 T01800104  RH  061%=      5-min Rain = 0
KNH1 130910Z 11006KT 18/11 A2992 RMK A01 T01800105  RH  061%=      5-min Rain = 0
KNH1 130911Z 12007KT 18/11 A2992 RMK A01 T01790105  RH  062%=      5-min Rain = 0
KNH1 130912Z 12006KT 18/11 A2992 RMK A01 T01790105  RH  062%=      5-min Rain = 0
KNH1 130913Z 11006KT 18/11 A2992 RMK A01 T01790105  RH  062%=      5-min Rain = 0
KNH1 130914Z 12006KT 18/11 A2992 RMK A01 T01790105  RH  062%=      5-min Rain = 0
KNH1 130915Z 12005KT 18/11 A2992 RMK A01 T01790105  RH  062%=      5-min Rain = 0
KNH1 130916Z 12005KT 18/11 A2992 RMK A01 T01790105  RH  062%=      5-min Rain = 0
KNH1 130917Z 12006KT 18/11 A2992 RMK A01 T01790105  RH  062%=      5-min Rain = 0
KNH1 130918Z 11006KT 18/11 A2992 RMK A01 T01800105  RH  062%=      5-min Rain = 0
KNH1 130919Z 12006KT 18/11 A2992 RMK A01 T01800105  RH  061%=      5-min Rain = 0
KNH1 130920Z 12006KT 18/10 A2992 RMK A01 T01800104  RH  061%=      5-min Rain = 0
KNH1 130921Z 11007KT 18/11 A2992 RMK A01 T01810105  RH  061%=      5-min Rain = 0
KNH1 130922Z 12007KT 18/11 A2992 RMK A01 T01810105  RH  061%=      5-min Rain = 0
KNH1 130923Z 11008KT 18/11 A2992 RMK A01 T01810105  RH  061%=      5-min Rain = 0
KNH1 130924Z 11007KT 18/11 A2992 RMK A01 T01820105  RH  061%=      5-min Rain = 0
KNH1 130925Z 11007KT 18/11 A2992 RMK A01 T01820105  RH  061%=      5-min Rain = 0
KNH1 130926Z 11007KT 18/11 A2992 RMK A01 T01830105  RH  060%=      5-min Rain = 0
KNH1 130927Z 11006KT 18/11 A2992 RMK A01 T01830105  RH  060%=      5-min Rain = 0
KNH1 130928Z 11007KT 18/11 A2992 RMK A01 T01830105  RH  061%=      5-min Rain = 0
KNH1 130929Z 11007KT 18/11 A2992 RMK A01 T01830105  RH  061%=      5-min Rain = 0
KNH1 130930Z 12006KT 18/11 A2992 RMK A01 T01830106  RH  061%=      5-min Rain = 0
KNH1 130931Z 12005KT 18/11 A2992 RMK A01 T01830106  RH  061%=      5-min Rain = 0
KNH1 130932Z 11005KT 18/11 A2992 RMK A01 T01820107  RH  061%=      5-min Rain = 0
KNH1 130933Z 12005KT 18/11 A2992 RMK A01 T01820106  RH  061%=      5-min Rain = 0
KNH1 130934Z 11005KT 18/11 A2992 RMK A01 T01820107  RH  061%=      5-min Rain = 0
KNH1 130935Z 12005KT 18/11 A2992 RMK A01 T01820106  RH  061%=      5-min Rain = 0
KNH1 130936Z 12004KT 18/11 A2992 RMK A01 T01820106  RH  061%=      5-min Rain = 0
KNH1 130937Z 12005KT 18/11 A2992 RMK A01 T01820106  RH  061%=      5-min Rain = 0
KNH1 130938Z 12005KT 18/11 A2992 RMK A01 T01820106  RH  061%=      5-min Rain = 0
KNH1 130939Z 13005KT 18/11 A2992 RMK A01 T01820106  RH  061%=      5-min Rain = 0
KNH1 130940Z 13005KT 18/11 A2992 RMK A01 T01830106  RH  061%=      5-min Rain = 0
KNH1 130941Z 12004KT 18/11 A2992 RMK A01 T01830105  RH  060%=      5-min Rain = 0
KNH1 130942Z 13006KT 18/11 A2992 RMK A01 T01840105  RH  060%=      5-min Rain = 0
KNH1 130943Z 13005KT 18/11 A2992 RMK A01 T01840105  RH  060%=      5-min Rain = 0
KNH1 130944Z 13004KT 19/11 A2992 RMK A01 T01850105  RH  060%=      5-min Rain = 0
KNH1 130945Z 13005KT 19/11 A2992 RMK A01 T01860105  RH  059%=      5-min Rain = 0
KNH1 130946Z 13005KT 19/10 A2992 RMK A01 T01860104  RH  059%=      5-min Rain = 0
KNH1 130947Z 13005KT 19/10 A2992 RMK A01 T01870104  RH  059%=      5-min Rain = 0
KNH1 130948Z 13005KT 19/10 A2992 RMK A01 T01880104  RH  058%=      5-min Rain = 0
KNH1 130949Z 13004KT 19/10 A2992 RMK A01 T01880104  RH  058%=      5-min Rain = 0
KNH1 130950Z 12005KT 19/10 A2992 RMK A01 T01890104  RH  058%=      5-min Rain = 0
KNH1 130951Z 12005KT 19/10 A2992 RMK A01 T01900103  RH  057%=      5-min Rain = 0
KNH1 130952Z 13004KT 19/10 A2992 RMK A01 T01910103  RH  057%=      5-min Rain = 0
KNH1 130953Z 12004KT 19/10 A2992 RMK A01 T01910103  RH  057%=      5-min Rain = 0
KNH1 130954Z 12004KT 19/10 A2992 RMK A01 T01920103  RH  056%=      5-min Rain = 0
KNH1 130955Z 12004KT 19/10 A2992 RMK A01 T01920103  RH  056%=      5-min Rain = 0
KNH1 130956Z 12004KT 19/10 A2992 RMK A01 T01930103  RH  056%=      5-min Rain = 0
KNH1 130957Z 12004KT 19/10 A2992 RMK A01 T01930104  RH  056%=      5-min Rain = 0
KNH1 130958Z 12004KT 19/10 A2992 RMK A01 T01940104  RH  056%=      5-min Rain = 0
KNH1 130959Z 11005KT 19/10 A2992 RMK A01 T01940103  RH  056%=      5-min Rain = 0
KNH1 131000Z 11005KT 19/10 A2992 RMK A01 T01940104  RH  056%=      5-min Rain = 0
KNH1 131001Z 11005KT 19/10 A2992 RMK A01 T01940104  RH  056%=      5-min Rain = 0
KNH1 131002Z 11006KT 19/10 A2992 RMK A01 T01940103  RH  056%=      5-min Rain = 0
KNH1 131003Z 11006KT 19/10 A2992 RMK A01 T01940103  RH  056%=      5-min Rain = 0
KNH1 131004Z 11005KT 19/10 A2992 RMK A01 T01940104  RH  056%=      5-min Rain = 0
KNH1 131005Z 11005KT 19/10 A2992 RMK A01 T01940104  RH  056%=      5-min Rain = 0
KNH1 131006Z 11005KT 19/10 A2992 RMK A01 T01940104  RH  056%=      5-min Rain = 0
KNH1 131007Z 11005KT 19/10 A2992 RMK A01 T01940104  RH  056%=      5-min Rain = 0
KNH1 131008Z 10004KT 19/10 A2992 RMK A01 T01940104  RH  056%=      5-min Rain = 0
KNH1 131009Z 10004KT 19/11 A2992 RMK A01 T01930105  RH  056%=      5-min Rain = 0
KNH1 131010Z 10005KT 19/11 A2992 RMK A01 T01930105  RH  057%=      5-min Rain = 0
KNH1 131011Z 11004KT 19/11 A2992 RMK A01 T01930105  RH  057%=      5-min Rain = 0
KNH1 131012Z 10005KT 19/11 A2992 RMK A01 T01920105  RH  057%=      5-min Rain = 0
KNH1 131013Z 10005KT 19/11 A2992 RMK A01 T01910105  RH  057%=      5-min Rain = 0
KNH1 131014Z 10005KT 19/11 A2992 RMK A01 T01910105  RH  058%=      5-min Rain = 0
KNH1 131015Z 10005KT 19/11 A2992 RMK A01 T01900106  RH  058%=      5-min Rain = 0
KNH1 131016Z 09004KT 19/11 A2992 RMK A01 T01900106  RH  058%=      5-min Rain = 0
KNH1 131017Z 10005KT 19/11 A2992 RMK A01 T01890106  RH  058%=      5-min Rain = 0
KNH1 131018Z 10004KT 19/11 A2992 RMK A01 T01890106  RH  058%=      5-min Rain = 0
KNH1 131019Z 10004KT 19/11 A2992 RMK A01 T01890106  RH  059%=      5-min Rain = 0
KNH1 131020Z 10004KT 19/11 A2992 RMK A01 T01890107  RH  059%=      5-min Rain = 0
KNH1 131021Z 10005KT 19/11 A2992 RMK A01 T01880107  RH  059%=      5-min Rain = 0
KNH1 131022Z 11004KT 19/11 A2992 RMK A01 T01890107  RH  059%=      5-min Rain = 0
KNH1 131023Z 10004KT 19/11 A2992 RMK A01 T01880107  RH  059%=      5-min Rain = 0
KNH1 131024Z 10004KT 19/11 A2992 RMK A01 T01880107  RH  059%=      5-min Rain = 0
KNH1 131025Z 10004KT 19/11 A2992 RMK A01 T01880107  RH  059%=      5-min Rain = 0
KNH1 131026Z 10005KT 19/11 A2992 RMK A01 T01870107  RH  060%=      5-min Rain = 0
KNH1 131027Z 10005KT 19/11 A2992 RMK A01 T01870108  RH  060%=      5-min Rain = 0
KNH1 131028Z 11004KT 19/11 A2992 RMK A01 T01860107  RH  060%=      5-min Rain = 0
KNH1 131029Z 10004KT 19/11 A2992 RMK A01 T01860108  RH  060%=      5-min Rain = 0
KNH1 131030Z 10004KT 19/11 A2992 RMK A01 T01850108  RH  060%=      5-min Rain = 0
KNH1 131031Z 11004KT 19/11 A2992 RMK A01 T01850108  RH  061%=      5-min Rain = 0
KNH1 131032Z 11004KT 18/11 A2992 RMK A01 T01840107  RH  061%=      5-min Rain = 0
KNH1 131033Z 11003KT 18/11 A2992 RMK A01 T01840108  RH  061%=      5-min Rain = 0
KNH1 131034Z 11005KT 18/11 A2992 RMK A01 T01840107  RH  061%=      5-min Rain = 0
KNH1 131035Z 11005KT 18/11 A2992 RMK A01 T01830107  RH  061%=      5-min Rain = 0
KNH1 131036Z 11005KT 18/11 A2992 RMK A01 T01830107  RH  061%=      5-min Rain = 0
KNH1 131037Z 10004KT 18/11 A2992 RMK A01 T01830107  RH  061%=      5-min Rain = 0
KNH1 131038Z 11003KT 18/11 A2992 RMK A01 T01830107  RH  061%=      5-min Rain = 0
KNH1 131039Z 11004KT 18/11 A2992 RMK A01 T01820107  RH  061%=      5-min Rain = 0
KNH1 131040Z 11003KT 18/11 A2992 RMK A01 T01820107  RH  061%=      5-min Rain = 0
KNH1 131041Z 11004KT 18/11 A2992 RMK A01 T01820107  RH  062%=      5-min Rain = 0
KNH1 131042Z 11004KT 18/11 A2992 RMK A01 T01810106  RH  062%=      5-min Rain = 0
KNH1 131043Z 11004KT 18/11 A2993 RMK A01 T01810106  RH  062%=      5-min Rain = 0
KNH1 131044Z 11004KT 18/11 A2993 RMK A01 T01810106  RH  061%=      5-min Rain = 0
KNH1 131045Z 11003KT 18/11 A2993 RMK A01 T01810106  RH  061%=      5-min Rain = 0
KNH1 131046Z 10004KT 18/11 A2992 RMK A01 T01800106  RH  062%=      5-min Rain = 0
KNH1 131047Z 10004KT 18/11 A2992 RMK A01 T01800105  RH  062%=      5-min Rain = 0
KNH1 131048Z 11004KT 18/11 A2992 RMK A01 T01800106  RH  062%=      5-min Rain = 0
KNH1 131049Z 10005KT 18/11 A2992 RMK A01 T01790105  RH  062%=      5-min Rain = 0
KNH1 131050Z 11004KT 18/11 A2992 RMK A01 T01790106  RH  062%=      5-min Rain = 0
KNH1 131051Z 11005KT 18/11 A2992 RMK A01 T01790106  RH  062%=      5-min Rain = 0
KNH1 131052Z 11006KT 18/11 A2992 RMK A01 T01790105  RH  062%=      5-min Rain = 0
KNH1 131053Z 11006KT 18/11 A2992 RMK A01 T01790105  RH  062%=      5-min Rain = 0
KNH1 131054Z 11005KT 18/11 A2992 RMK A01 T01790105  RH  062%=      5-min Rain = 0
KNH1 131055Z 11005KT 18/10 A2992 RMK A01 T01790104  RH  062%=      5-min Rain = 0
KNH1 131056Z 11005KT 18/10 A2992 RMK A01 T01790104  RH  062%=      5-min Rain = 0
KNH1 131057Z 10004KT 18/11 A2992 RMK A01 T01790105  RH  062%=      5-min Rain = 0
KNH1 131058Z 11004KT 18/11 A2992 RMK A01 T01790105  RH  062%=      5-min Rain = 0
KNH1 131059Z 11003KT 18/11 A2992 RMK A01 T01790105  RH  062%=      5-min Rain = 0
KNH1 131100Z 11003KT 18/11 A2992 RMK A01 T01780105  RH  062%=      5-min Rain = 0
KNH1 131101Z 10004KT 18/11 A2992 RMK A01 T01780106  RH  063%=      5-min Rain = 0
KNH1 131102Z 10004KT 18/11 A2992 RMK A01 T01780106  RH  063%=      5-min Rain = 0
KNH1 131103Z 11004KT 18/11 A2992 RMK A01 T01770106  RH  063%=      5-min Rain = 0
KNH1 131104Z 11004KT 18/11 A2992 RMK A01 T01770106  RH  063%=      5-min Rain = 0
KNH1 131105Z 11003KT 18/11 A2992 RMK A01 T01770106  RH  063%=      5-min Rain = 0
KNH1 131106Z 11004KT 18/11 A2992 RMK A01 T01770106  RH  063%=      5-min Rain = 0
KNH1 131107Z 12005KT 18/11 A2992 RMK A01 T01770107  RH  063%=      5-min Rain = 0
KNH1 131108Z 11004KT 18/11 A2992 RMK A01 T01770106  RH  063%=      5-min Rain = 0
KNH1 131109Z 12005KT 18/11 A2992 RMK A01 T01770106  RH  063%=      5-min Rain = 0
KNH1 131110Z 12004KT 18/11 A2992 RMK A01 T01770106  RH  063%=      5-min Rain = 0
KNH1 131111Z 12004KT 18/11 A2992 RMK A01 T01770106  RH  063%=      5-min Rain = 0
KNH1 131112Z 12004KT 18/11 A2992 RMK A01 T01770106  RH  063%=      5-min Rain = 0
KNH1 131113Z 13004KT 18/11 A2992 RMK A01 T01770106  RH  063%=      5-min Rain = 0
KNH1 131114Z 12003KT 18/11 A2992 RMK A01 T01770106  RH  063%=      5-min Rain = 0
KNH1 131115Z 13003KT 18/11 A2993 RMK A01 T01770106  RH  063%=      5-min Rain = 0
KNH1 131116Z 13004KT 18/11 A2993 RMK A01 T01770106  RH  063%=      5-min Rain = 0
KNH1 131117Z 13004KT 18/11 A2993 RMK A01 T01770106  RH  063%=      5-min Rain = 0
KNH1 131118Z 13003KT 18/11 A2993 RMK A01 T01770105  RH  063%=      5-min Rain = 0
KNH1 131119Z 12004KT 18/11 A2993 RMK A01 T01780106  RH  063%=      5-min Rain = 0
KNH1 131120Z 12004KT 18/11 A2993 RMK A01 T01780106  RH  063%=      5-min Rain = 0
KNH1 131121Z 13005KT 18/11 A2993 RMK A01 T01780105  RH  062%=      5-min Rain = 0
KNH1 131122Z 13004KT 18/10 A2993 RMK A01 T01780104  RH  062%=      5-min Rain = 0
KNH1 131123Z 13004KT 18/10 A2993 RMK A01 T01790104  RH  062%=      5-min Rain = 0
KNH1 131124Z 12004KT 18/10 A2993 RMK A01 T01790103  RH  061%=      5-min Rain = 0
KNH1 131125Z 13004KT 18/10 A2993 RMK A01 T01800103  RH  061%=      5-min Rain = 0
KNH1 131126Z 13004KT 18/10 A2993 RMK A01 T01810103  RH  060%=      5-min Rain = 0
KNH1 131127Z 13004KT 18/10 A2993 RMK A01 T01820103  RH  060%=      5-min Rain = 0
KNH1 131128Z 13005KT 18/10 A2992 RMK A01 T01820102  RH  060%=      5-min Rain = 0
KNH1 131129Z 12005KT 18/10 A2992 RMK A01 T01830102  RH  059%=      5-min Rain = 0
KNH1 131130Z 12004KT 18/10 A2993 RMK A01 T01840102  RH  059%=      5-min Rain = 0
KNH1 131131Z 12004KT 18/10 A2993 RMK A01 T01840101  RH  058%=      5-min Rain = 0
KNH1 131132Z 13004KT 18/10 A2993 RMK A01 T01840101  RH  058%=      5-min Rain = 0
KNH1 131133Z 12005KT 19/10 A2993 RMK A01 T01850101  RH  058%=      5-min Rain = 0
KNH1 131134Z 11004KT 19/10 A2993 RMK A01 T01850100  RH  058%=      5-min Rain = 0
KNH1 131135Z 11005KT 19/10 A2993 RMK A01 T01860100  RH  058%=      5-min Rain = 0
KNH1 131136Z 11004KT 19/10 A2993 RMK A01 T01860100  RH  058%=      5-min Rain = 0
KNH1 131137Z 11005KT 19/10 A2993 RMK A01 T01860100  RH  058%=      5-min Rain = 0
KNH1 131138Z 11005KT 19/10 A2993 RMK A01 T01860101  RH  058%=      5-min Rain = 0
KNH1 131139Z 11004KT 19/10 A2993 RMK A01 T01860102  RH  058%=      5-min Rain = 0
KNH1 131140Z 10003KT 19/10 A2993 RMK A01 T01850102  RH  058%=      5-min Rain = 0
KNH1 131141Z 10003KT 19/10 A2993 RMK A01 T01850102  RH  059%=      5-min Rain = 0
KNH1 131142Z 11004KT 18/10 A2993 RMK A01 T01840103  RH  059%=      5-min Rain = 0
KNH1 131143Z 11005KT 18/10 A2993 RMK A01 T01840103  RH  059%=      5-min Rain = 0
KNH1 131144Z 11005KT 18/10 A2993 RMK A01 T01830103  RH  059%=      5-min Rain = 0
KNH1 131145Z 11006KT 18/10 A2993 RMK A01 T01830102  RH  059%=      5-min Rain = 0
KNH1 131146Z 11006KT 18/10 A2993 RMK A01 T01830102  RH  059%=      5-min Rain = 0
KNH1 131147Z 11006KT 18/10 A2993 RMK A01 T01830102  RH  059%=      5-min Rain = 0
KNH1 131148Z 12006KT 18/10 A2993 RMK A01 T01830102  RH  059%=      5-min Rain = 0
KNH1 131149Z 11006KT 18/10 A2993 RMK A01 T01830102  RH  059%=      5-min Rain = 0
KNH1 131150Z 12005KT 18/10 A2993 RMK A01 T01830102  RH  059%=      5-min Rain = 0
KNH1 131151Z 11005KT 18/10 A2993 RMK A01 T01830101  RH  059%=      5-min Rain = 0
KNH1 131152Z 12005KT 18/10 A2993 RMK A01 T01830101  RH  059%=      5-min Rain = 0
KNH1 131153Z 11005KT 18/10 A2993 RMK A01 T01830101  RH  059%=      5-min Rain = 0
KNH1 131154Z 11004KT 18/10 A2993 RMK A01 T01830101  RH  059%=      5-min Rain = 0
KNH1 131155Z 10004KT 18/10 A2993 RMK A01 T01830101  RH  059%=      5-min Rain = 0
KNH1 131156Z 10004KT 18/10 A2993 RMK A01 T01830102  RH  059%=      5-min Rain = 0
KNH1 131157Z 10004KT 18/10 A2993 RMK A01 T01820103  RH  060%=      5-min Rain = 0
KNH1 131158Z 10005KT 18/10 A2993 RMK A01 T01820103  RH  060%=      5-min Rain = 0
KNH1 131159Z 09004KT 18/10 A2993 RMK A01 T01810103  RH  060%=      5-min Rain = 0
KNH1 131200Z 09005KT 18/10 A2993 RMK A01 T01810104  RH  060%=      5-min Rain = 0
KNH1 131201Z 09005KT 18/10 A2993 RMK A01 T01810104  RH  061%=      5-min Rain = 0
KNH1 131202Z 09004KT 18/11 A2993 RMK A01 T01800105  RH  061%=      5-min Rain = 0
KNH1 131203Z 10005KT 18/11 A2993 RMK A01 T01800105  RH  062%=      5-min Rain = 0
KNH1 131204Z 10005KT 18/11 A2993 RMK A01 T01800105  RH  062%=      5-min Rain = 0
KNH1 131205Z 11004KT 18/11 A2993 RMK A01 T01800105  RH  062%=      5-min Rain = 0
KNH1 131206Z 10005KT 18/10 A2993 RMK A01 T01790104  RH  061%=      5-min Rain = 0
KNH1 131207Z 10005KT 18/10 A2993 RMK A01 T01800104  RH  061%=      5-min Rain = 0
KNH1 131208Z 10005KT 18/10 A2993 RMK A01 T01800103  RH  061%=      5-min Rain = 0
KNH1 131209Z 10006KT 18/10 A2993 RMK A01 T01800103  RH  061%=      5-min Rain = 0
KNH1 131210Z 10005KT 18/10 A2993 RMK A01 T01800104  RH  061%=      5-min Rain = 0
KNH1 131211Z 10005KT 18/10 A2993 RMK A01 T01800103  RH  061%=      5-min Rain = 0
KNH1 131212Z 10005KT 18/10 A2993 RMK A01 T01810103  RH  060%=      5-min Rain = 0
KNH1 131213Z 10005KT 18/10 A2993 RMK A01 T01810103  RH  060%=      5-min Rain = 0
KNH1 131214Z 09005KT 18/10 A2993 RMK A01 T01810103  RH  060%=      5-min Rain = 0
KNH1 131215Z 10004KT 18/10 A2993 RMK A01 T01810103  RH  060%=      5-min Rain = 0
KNH1 131216Z 10003KT 18/10 A2993 RMK A01 T01810104  RH  060%=      5-min Rain = 0
KNH1 131217Z 10004KT 18/10 A2994 RMK A01 T01810104  RH  061%=      5-min Rain = 0
KNH1 131218Z 11004KT 18/10 A2994 RMK A01 T01810104  RH  061%=      5-min Rain = 0
KNH1 131219Z 11004KT 18/10 A2994 RMK A01 T01810104  RH  060%=      5-min Rain = 0
KNH1 131220Z 12005KT 18/10 A2994 RMK A01 T01810103  RH  060%=      5-min Rain = 0
KNH1 131221Z 11005KT 18/10 A2994 RMK A01 T01810103  RH  060%=      5-min Rain = 0
KNH1 131222Z 12005KT 18/10 A2994 RMK A01 T01810102  RH  060%=      5-min Rain = 0
KNH1 131223Z 11006KT 18/10 A2994 RMK A01 T01820102  RH  060%=      5-min Rain = 0
KNH1 131224Z 12004KT 18/10 A2994 RMK A01 T01820102  RH  059%=      5-min Rain = 0
KNH1 131225Z 12005KT 18/10 A2994 RMK A01 T01830102  RH  059%=      5-min Rain = 0
KNH1 131226Z 12005KT 18/10 A2994 RMK A01 T01830102  RH  059%=      5-min Rain = 0
KNH1 131227Z 12005KT 18/10 A2994 RMK A01 T01840102  RH  059%=      5-min Rain = 0
KNH1 131228Z 11004KT 18/10 A2994 RMK A01 T01840101  RH  059%=      5-min Rain = 0
KNH1 131229Z 12004KT 18/10 A2994 RMK A01 T01840102  RH  059%=      5-min Rain = 0
KNH1 131230Z 13004KT 18/10 A2994 RMK A01 T01840102  RH  059%=      5-min Rain = 0
KNH1 131231Z 12004KT 18/10 A2994 RMK A01 T01840101  RH  059%=      5-min Rain = 0
KNH1 131232Z 12003KT 18/10 A2994 RMK A01 T01840101  RH  058%=      5-min Rain = 0
KNH1 131233Z 13004KT 18/10 A2994 RMK A01 T01840101  RH  058%=      5-min Rain = 0
KNH1 131234Z 13004KT 18/10 A2994 RMK A01 T01840101  RH  058%=      5-min Rain = 0
KNH1 131235Z 13005KT 19/10 A2994 RMK A01 T01850101  RH  058%=      5-min Rain = 0
KNH1 131236Z 13004KT 19/10 A2994 RMK A01 T01850100  RH  058%=      5-min Rain = 0
KNH1 131237Z 13005KT 19/10 A2994 RMK A01 T01850100  RH  057%=      5-min Rain = 0
KNH1 131238Z 13004KT 19/10 A2994 RMK A01 T01860100  RH  057%=      5-min Rain = 0
KNH1 131239Z 13004KT 19/10 A2994 RMK A01 T01860100  RH  057%=      5-min Rain = 0
KNH1 131240Z 13003KT 19/10 A2994 RMK A01 T01860100  RH  057%=      5-min Rain = 0
KNH1 131241Z 13004KT 19/10 A2994 RMK A01 T01870100  RH  057%=      5-min Rain = 0
KNH1 131242Z 12004KT 19/10 A2994 RMK A01 T01870100  RH  057%=      5-min Rain = 0
KNH1 131243Z 12004KT 19/10 A2994 RMK A01 T01870100  RH  057%=      5-min Rain = 0
KNH1 131244Z 12004KT 19/10 A2994 RMK A01 T01870100  RH  057%=      5-min Rain = 0
KNH1 131245Z 12004KT 19/10 A2994 RMK A01 T01880100  RH  057%=      5-min Rain = 0
KNH1 131246Z 13004KT 19/10 A2994 RMK A01 T01880100  RH  056%=      5-min Rain = 0
KNH1 131247Z 12004KT 19/10 A2994 RMK A01 T01880100  RH  056%=      5-min Rain = 0
KNH1 131248Z 12005KT 19/10 A2994 RMK A01 T01880100  RH  056%=      5-min Rain = 0
KNH1 131249Z 12004KT 19/10 A2994 RMK A01 T01890100  RH  056%=      5-min Rain = 0
KNH1 131250Z 12004KT 19/10 A2994 RMK A01 T01890100  RH  056%=      5-min Rain = 0
KNH1 131251Z 12004KT 19/10 A2994 RMK A01 T01890101  RH  056%=      5-min Rain = 0
KNH1 131252Z 12005KT 19/10 A2994 RMK A01 T01890100  RH  056%=      5-min Rain = 0
KNH1 131253Z 13004KT 19/10 A2994 RMK A01 T01900100  RH  056%=      5-min Rain = 0
KNH1 131254Z 12004KT 19/10 A2994 RMK A01 T01900101  RH  056%=      5-min Rain = 0
KNH1 131255Z 13004KT 19/10 A2994 RMK A01 T01910101  RH  056%=      5-min Rain = 0
KNH1 131256Z 13004KT 19/10 A2994 RMK A01 T01910101  RH  056%=      5-min Rain = 0
KNH1 131257Z 13004KT 19/10 A2994 RMK A01 T01910101  RH  056%=      5-min Rain = 0
KNH1 131258Z 13004KT 19/10 A2994 RMK A01 T01910101  RH  056%=      5-min Rain = 0
KNH1 131259Z 13004KT 19/10 A2994 RMK A01 T01920102  RH  056%=      5-min Rain = 0
KNH1 131300Z 13005KT 19/10 A2994 RMK A01 T01920101  RH  056%=      5-min Rain = 0
KNH1 131301Z 13004KT 19/10 A2994 RMK A01 T01920101  RH  056%=      5-min Rain = 0
KNH1 131302Z 14004KT 19/10 A2994 RMK A01 T01920100  RH  055%=      5-min Rain = 0
KNH1 131303Z 13004KT 19/10 A2994 RMK A01 T01930101  RH  055%=      5-min Rain = 0
KNH1 131304Z 13004KT 19/10 A2994 RMK A01 T01930101  RH  055%=      5-min Rain = 0
KNH1 131305Z 13004KT 19/10 A2994 RMK A01 T01930101  RH  055%=      5-min Rain = 0
KNH1 131306Z 13005KT 19/10 A2994 RMK A01 T01930101  RH  055%=      5-min Rain = 0
KNH1 131307Z 13004KT 19/10 A2994 RMK A01 T01930101  RH  055%=      5-min Rain = 0
KNH1 131308Z 13004KT 19/10 A2994 RMK A01 T01930101  RH  055%=      5-min Rain = 0
KNH1 131309Z 13003KT 19/10 A2994 RMK A01 T01930101  RH  055%=      5-min Rain = 0
KNH1 131310Z 13004KT 19/10 A2994 RMK A01 T01930101  RH  055%=      5-min Rain = 0
KNH1 131311Z 14004KT 19/10 A2994 RMK A01 T01930101  RH  055%=      5-min Rain = 0
KNH1 131312Z 13003KT 19/10 A2994 RMK A01 T01930101  RH  055%=      5-min Rain = 0
KNH1 131313Z 13005KT 19/10 A2994 RMK A01 T01940102  RH  055%=      5-min Rain = 0
KNH1 131314Z 13005KT 19/10 A2994 RMK A01 T01940102  RH  055%=      5-min Rain = 0
KNH1 131315Z 13004KT 20/10 A2994 RMK A01 T01950102  RH  055%=      5-min Rain = 0
KNH1 131316Z 13005KT 20/10 A2994 RMK A01 T01960103  RH  055%=      5-min Rain = 0
KNH1 131317Z 13006KT 20/10 A2994 RMK A01 T01960104  RH  055%=      5-min Rain = 0
KNH1 131318Z 13005KT 20/11 A2994 RMK A01 T01960105  RH  055%=      5-min Rain = 0
KNH1 131319Z 13005KT 20/10 A2994 RMK A01 T01970104  RH  055%=      5-min Rain = 0
KNH1 131320Z 14005KT 20/10 A2994 RMK A01 T01970104  RH  055%=      5-min Rain = 0
KNH1 131321Z 14005KT 20/10 A2994 RMK A01 T01970104  RH  055%=      5-min Rain = 0
KNH1 131322Z 14004KT 20/11 A2994 RMK A01 T01970105  RH  055%=      5-min Rain = 0
KNH1 131323Z 14004KT 20/11 A2994 RMK A01 T01970105  RH  055%=      5-min Rain = 0
KNH1 131324Z 13004KT 20/11 A2994 RMK A01 T01970105  RH  055%=      5-min Rain = 0
KNH1 131325Z 14004KT 20/11 A2994 RMK A01 T01970105  RH  055%=      5-min Rain = 0
KNH1 131326Z 13004KT 20/11 A2994 RMK A01 T01980105  RH  055%=      5-min Rain = 0
KNH1 131327Z 14004KT 20/11 A2994 RMK A01 T01980105  RH  055%=      5-min Rain = 0
KNH1 131328Z 14005KT 20/11 A2994 RMK A01 T01980105  RH  055%=      5-min Rain = 0
KNH1 131329Z 14004KT 20/11 A2994 RMK A01 T01980105  RH  055%=      5-min Rain = 0
KNH1 131330Z 14004KT 20/11 A2994 RMK A01 T01990106  RH  055%=      5-min Rain = 0
KNH1 131331Z 14004KT 20/11 A2994 RMK A01 T01990105  RH  055%=      5-min Rain = 0
KNH1 131332Z 13005KT 20/11 A2994 RMK A01 T01990106  RH  055%=      5-min Rain = 0
KNH1 131333Z 14004KT 20/11 A2995 RMK A01 T02000105  RH  054%=      5-min Rain = 0
KNH1 131334Z 13005KT 20/11 A2995 RMK A01 T02010106  RH  054%=      5-min Rain = 0
KNH1 131335Z 14004KT 20/11 A2995 RMK A01 T02020105  RH  054%=      5-min Rain = 0
KNH1 131336Z 14004KT 20/11 A2995 RMK A01 T02020106  RH  054%=      5-min Rain = 0
KNH1 131337Z 14006KT 20/11 A2995 RMK A01 T02030106  RH  054%=      5-min Rain = 0
KNH1 131338Z 15005KT 20/11 A2995 RMK A01 T02030106  RH  053%=      5-min Rain = 0
KNH1 131339Z 14004KT 20/11 A2995 RMK A01 T02030105  RH  053%=      5-min Rain = 0
KNH1 131340Z 14004KT 20/11 A2995 RMK A01 T02030105  RH  053%=      5-min Rain = 0
KNH1 131341Z 14004KT 20/11 A2995 RMK A01 T02030106  RH  054%=      5-min Rain = 0
KNH1 131342Z 14004KT 20/11 A2995 RMK A01 T02030105  RH  053%=      5-min Rain = 0
KNH1 131343Z 14004KT 20/11 A2995 RMK A01 T02030106  RH  053%=      5-min Rain = 0
KNH1 131344Z 14004KT 20/11 A2995 RMK A01 T02030106  RH  054%=      5-min Rain = 0
KNH1 131345Z 14004KT 20/11 A2995 RMK A01 T02040106  RH  053%=      5-min Rain = 0
KNH1 131346Z 14005KT 20/11 A2995 RMK A01 T02040107  RH  054%=      5-min Rain = 0
KNH1 131347Z 14004KT 20/11 A2995 RMK A01 T02040108  RH  054%=      5-min Rain = 0
KNH1 131348Z 14005KT 21/11 A2995 RMK A01 T02050107  RH  053%=      5-min Rain = 0
KNH1 131349Z 14005KT 21/11 A2995 RMK A01 T02050107  RH  053%=      5-min Rain = 0
KNH1 131350Z 14005KT 21/11 A2995 RMK A01 T02050106  RH  053%=      5-min Rain = 0
KNH1 131351Z 15004KT 21/11 A2995 RMK A01 T02060108  RH  053%=      5-min Rain = 0
KNH1 131352Z 15004KT 21/11 A2995 RMK A01 T02060108  RH  053%=      5-min Rain = 0
KNH1 131353Z 15004KT 21/11 A2995 RMK A01 T02060107  RH  053%=      5-min Rain = 0
KNH1 131354Z 14004KT 21/11 A2995 RMK A01 T02070107  RH  053%=      5-min Rain = 0
KNH1 131355Z 15005KT 21/11 A2994 RMK A01 T02060107  RH  053%=      5-min Rain = 0
KNH1 131356Z 14005KT 21/11 A2994 RMK A01 T02070106  RH  053%=      5-min Rain = 0
KNH1 131357Z 14005KT 21/11 A2994 RMK A01 T02070106  RH  053%=      5-min Rain = 0
KNH1 131358Z 14005KT 21/11 A2994 RMK A01 T02070108  RH  053%=      5-min Rain = 0
KNH1 131359Z 14004KT 21/11 A2994 RMK A01 T02080109  RH  053%=      5-min Rain = 0
KNH1 131400Z 14004KT 21/11 A2994 RMK A01 T02070109  RH  053%=      5-min Rain = 0
KNH1 131401Z 14004KT 21/11 A2994 RMK A01 T02070109  RH  054%=      5-min Rain = 0
KNH1 131402Z 14004KT 21/11 A2994 RMK A01 T02070110  RH  054%=      5-min Rain = 0
KNH1 131403Z 14004KT 21/11 A2994 RMK A01 T02070111  RH  054%=      5-min Rain = 0
KNH1 131404Z 15004KT 21/11 A2994 RMK A01 T02070111  RH  054%=      5-min Rain = 0
KNH1 131405Z 14004KT 21/11 A2994 RMK A01 T02060111  RH  054%=      5-min Rain = 0
KNH1 131406Z 14004KT 21/11 A2994 RMK A01 T02070112  RH  054%=      5-min Rain = 0
KNH1 131407Z 14004KT 21/11 A2994 RMK A01 T02070112  RH  054%=      5-min Rain = 0
KNH1 131408Z 15004KT 21/11 A2994 RMK A01 T02060111  RH  054%=      5-min Rain = 0
KNH1 131409Z 15004KT 21/11 A2994 RMK A01 T02070112  RH  054%=      5-min Rain = 0
KNH1 131410Z 15004KT 21/11 A2994 RMK A01 T02070111  RH  054%=      5-min Rain = 0
KNH1 131411Z 14004KT 21/11 A2994 RMK A01 T02070111  RH  054%=      5-min Rain = 0
KNH1 131412Z 14004KT 21/11 A2994 RMK A01 T02080111  RH  054%=      5-min Rain = 0
KNH1 131413Z 13004KT 21/11 A2994 RMK A01 T02100113  RH  054%=      5-min Rain = 0
KNH1 131414Z 13004KT 21/11 A2994 RMK A01 T02110114  RH  054%=      5-min Rain = 0
KNH1 131415Z 13003KT 21/12 A2994 RMK A01 T02130115  RH  054%=      5-min Rain = 0
KNH1 131416Z 13003KT 22/12 A2994 RMK A01 T02150116  RH  053%=      5-min Rain = 0
KNH1 131417Z 13004KT 22/12 A2994 RMK A01 T02180115  RH  052%=      5-min Rain = 0
KNH1 131418Z 13004KT 22/12 A2994 RMK A01 T02200116  RH  052%=      5-min Rain = 0
KNH1 131419Z 14004KT 22/12 A2994 RMK A01 T02220117  RH  051%=      5-min Rain = 0
KNH1 131420Z 13004KT 23/12 A2994 RMK A01 T02250119  RH  051%=      5-min Rain = 0
KNH1 131421Z 14004KT 23/12 A2994 RMK A01 T02280117  RH  049%=      5-min Rain = 0
KNH1 131422Z 13004KT 23/12 A2994 RMK A01 T02290117  RH  049%=      5-min Rain = 0
KNH1 131423Z 14004KT 23/12 A2994 RMK A01 T02300115  RH  048%=      5-min Rain = 0
KNH1 131424Z 14003KT 23/12 A2994 RMK A01 T02300117  RH  049%=      5-min Rain = 0
KNH1 131425Z 14004KT 23/12 A2994 RMK A01 T02300118  RH  049%=      5-min Rain = 0
KNH1 131426Z 15004KT 23/12 A2994 RMK A01 T02300117  RH  049%=      5-min Rain = 0
KNH1 131427Z 15004KT 23/12 A2994 RMK A01 T02300117  RH  049%=      5-min Rain = 0
KNH1 131428Z 13004KT 23/12 A2994 RMK A01 T02300116  RH  048%=      5-min Rain = 0
KNH1 131429Z 15004KT 23/12 A2994 RMK A01 T02310115  RH  048%=      5-min Rain = 0
KNH1 131430Z 15005KT 23/11 A2994 RMK A01 T02320114  RH  048%=      5-min Rain = 0
KNH1 131431Z 14003KT 23/11 A2995 RMK A01 T02330114  RH  047%=      5-min Rain = 0
KNH1 131432Z 15004KT 23/12 A2995 RMK A01 T02340117  RH  048%=      5-min Rain = 0
KNH1 131433Z 15004KT 24/12 A2995 RMK A01 T02350116  RH  047%=      5-min Rain = 0
KNH1 131434Z 15003KT 24/12 A2994 RMK A01 T02360119  RH  048%=      5-min Rain = 0
KNH1 131435Z 15004KT 24/12 A2994 RMK A01 T02370118  RH  047%=      5-min Rain = 0
KNH1 131436Z 14004KT 24/12 A2994 RMK A01 T02380117  RH  047%=      5-min Rain = 0
KNH1 131437Z 14005KT 24/12 A2994 RMK A01 T02380117  RH  047%=      5-min Rain = 0
KNH1 131438Z 14005KT 24/12 A2994 RMK A01 T02380117  RH  047%=      5-min Rain = 0
KNH1 131439Z 15006KT 24/12 A2995 RMK A01 T02380118  RH  047%=      5-min Rain = 0
KNH1 131440Z 14006KT 24/12 A2995 RMK A01 T02380117  RH  047%=      5-min Rain = 0
KNH1 131441Z 14006KT 24/12 A2995 RMK A01 T02370117  RH  047%=      5-min Rain = 0
KNH1 131442Z 14004KT 24/12 A2995 RMK A01 T02360116  RH  047%=      5-min Rain = 0
KNH1 131443Z 14004KT 24/12 A2995 RMK A01 T02350117  RH  047%=      5-min Rain = 0
KNH1 131444Z 14004KT 24/12 A2995 RMK A01 T02350118  RH  048%=      5-min Rain = 0
KNH1 131445Z 14003KT 24/12 A2995 RMK A01 T02360119  RH  048%=      5-min Rain = 0
KNH1 131446Z 14005KT 24/12 A2995 RMK A01 T02360119  RH  048%=      5-min Rain = 0
KNH1 131447Z 13005KT 24/12 A2995 RMK A01 T02360121  RH  048%=      5-min Rain = 0
KNH1 131448Z 14005KT 24/12 A2995 RMK A01 T02360119  RH  048%=      5-min Rain = 0
KNH1 131449Z 14005KT 24/12 A2995 RMK A01 T02360120  RH  048%=      5-min Rain = 0
KNH1 131450Z 14006KT 24/12 A2995 RMK A01 T02350118  RH  048%=      5-min Rain = 0
KNH1 131451Z 14005KT 24/12 A2995 RMK A01 T02350117  RH  047%=      5-min Rain = 0
KNH1 131452Z 13004KT 24/12 A2995 RMK A01 T02360120  RH  048%=      5-min Rain = 0
KNH1 131453Z 13005KT 24/12 A2995 RMK A01 T02360121  RH  048%=      5-min Rain = 0
KNH1 131454Z 14005KT 24/12 A2995 RMK A01 T02370122  RH  048%=      5-min Rain = 0
KNH1 131455Z 14005KT 24/12 A2995 RMK A01 T02380121  RH  048%=      5-min Rain = 0
KNH1 131456Z 14006KT 24/12 A2995 RMK A01 T02380120  RH  048%=      5-min Rain = 0
KNH1 131457Z 14006KT 24/12 A2995 RMK A01 T02380121  RH  048%=      5-min Rain = 0
KNH1 131458Z 14005KT 24/12 A2995 RMK A01 T02370118  RH  047%=      5-min Rain = 0
KNH1 131459Z 15003KT 24/12 A2995 RMK A01 T02370118  RH  047%=      5-min Rain = 0
KNH1 131500Z 14006KT 24/12 A2995 RMK A01 T02370116  RH  046%=      5-min Rain = 0
KNH1 131501Z 14006KT 24/12 A2995 RMK A01 T02380115  RH  046%=      5-min Rain = 0
KNH1 131502Z 15005KT 24/11 A2995 RMK A01 T02380114  RH  046%=      5-min Rain = 0
KNH1 131503Z 14004KT 24/12 A2995 RMK A01 T02380115  RH  046%=      5-min Rain = 0
KNH1 131504Z 14006KT 24/12 A2995 RMK A01 T02380116  RH  046%=      5-min Rain = 0
KNH1 131505Z 15006KT 24/11 A2995 RMK A01 T02390114  RH  046%=      5-min Rain = 0
KNH1 131506Z 14004KT 24/12 A2995 RMK A01 T02390116  RH  046%=      5-min Rain = 0
KNH1 131507Z 14005KT 24/12 A2995 RMK A01 T02390117  RH  046%=      5-min Rain = 0
KNH1 131508Z 15004KT 24/12 A2995 RMK A01 T02390117  RH  046%=      5-min Rain = 0
KNH1 131509Z 15005KT 24/12 A2995 RMK A01 T02390115  RH  046%=      5-min Rain = 0
KNH1 131510Z 14005KT 24/12 A2995 RMK A01 T02400115  RH  045%=      5-min Rain = 0
KNH1 131511Z 16004KT 24/11 A2995 RMK A01 T02400114  RH  045%=      5-min Rain = 0
KNH1 131512Z 15005KT 24/12 A2995 RMK A01 T02400115  RH  045%=      5-min Rain = 0
KNH1 131513Z 15004KT 24/11 A2995 RMK A01 T02410114  RH  045%=      5-min Rain = 0
KNH1 131514Z 16005KT 24/12 A2995 RMK A01 T02420115  RH  045%=      5-min Rain = 0
KNH1 131515Z 15003KT 24/12 A2995 RMK A01 T02420116  RH  045%=      5-min Rain = 0
KNH1 131516Z 14002KT 24/12 A2995 RMK A01 T02430117  RH  045%=      5-min Rain = 0
KNH1 131517Z 15004KT 24/12 A2995 RMK A01 T02430116  RH  045%=      5-min Rain = 0
KNH1 131518Z 15003KT 24/12 A2995 RMK A01 T02440117  RH  045%=      5-min Rain = 0
KNH1 131519Z 16004KT 25/12 A2995 RMK A01 T02450117  RH  045%=      5-min Rain = 0
KNH1 131520Z 14003KT 25/12 A2995 RMK A01 T02450119  RH  045%=      5-min Rain = 0
KNH1 131521Z 14003KT 25/12 A2995 RMK A01 T02460118  RH  045%=      5-min Rain = 0
KNH1 131522Z 15003KT 25/12 A2996 RMK A01 T02470120  RH  045%=      5-min Rain = 0
KNH1 131523Z 15003KT 25/12 A2996 RMK A01 T02470118  RH  044%=      5-min Rain = 0
KNH1 131524Z 15004KT 25/12 A2996 RMK A01 T02480119  RH  045%=      5-min Rain = 0
KNH1 131525Z 15004KT 25/12 A2996 RMK A01 T02480116  RH  044%=      5-min Rain = 0
KNH1 131526Z 14004KT 25/12 A2996 RMK A01 T02480115  RH  043%=      5-min Rain = 0
KNH1 131527Z 15003KT 25/12 A2996 RMK A01 T02480117  RH  044%=      5-min Rain = 0
KNH1 131528Z 14003KT 25/12 A2996 RMK A01 T02480117  RH  044%=      5-min Rain = 0
KNH1 131529Z 15003KT 25/12 A2996 RMK A01 T02490116  RH  043%=      5-min Rain = 0
KNH1 131530Z 14004KT 25/12 A2996 RMK A01 T02490119  RH  044%=      5-min Rain = 0
KNH1 131531Z 15004KT 25/12 A2996 RMK A01 T02490118  RH  044%=      5-min Rain = 0
KNH1 131532Z 14004KT 25/12 A2996 RMK A01 T02500119  RH  044%=      5-min Rain = 0
KNH1 131533Z 13003KT 25/12 A2996 RMK A01 T02510120  RH  044%=      5-min Rain = 0
KNH1 131534Z 13004KT 25/12 A2996 RMK A01 T02510121  RH  044%=      5-min Rain = 0
KNH1 131535Z 13004KT 25/12 A2996 RMK A01 T02520121  RH  044%=      5-min Rain = 0
KNH1 131536Z 13004KT 25/12 A2996 RMK A01 T02530122  RH  044%=      5-min Rain = 0
KNH1 131537Z 14005KT 25/12 A2996 RMK A01 T02540121  RH  043%=      5-min Rain = 0
KNH1 131538Z 14003KT 26/12 A2996 RMK A01 T02550121  RH  043%=      5-min Rain = 0
KNH1 131539Z 13005KT 26/12 A2996 RMK A01 T02570124  RH  044%=      5-min Rain = 0
KNH1 131540Z 13005KT 26/13 A2996 RMK A01 T02590125  RH  044%=      5-min Rain = 0
KNH1 131541Z 12004KT 26/13 A2996 RMK A01 T02590128  RH  044%=      5-min Rain = 0
KNH1 131542Z 12005KT 26/13 A2996 RMK A01 T02600127  RH  044%=      5-min Rain = 0
KNH1 131543Z 13005KT 26/13 A2996 RMK A01 T02610125  RH  043%=      5-min Rain = 0
KNH1 131544Z 13004KT 26/13 A2996 RMK A01 T02610128  RH  044%=      5-min Rain = 0
KNH1 131545Z 12004KT 26/13 A2996 RMK A01 T02620129  RH  043%=      5-min Rain = 0
KNH1 131546Z 12005KT 26/13 A2996 RMK A01 T02640130  RH  043%=      5-min Rain = 0
KNH1 131547Z 13006KT 26/13 A2996 RMK A01 T02640126  RH  042%=      5-min Rain = 0
KNH1 131548Z 13003KT 26/13 A2996 RMK A01 T02640127  RH  043%=      5-min Rain = 0
KNH1 131549Z 13006KT 26/13 A2996 RMK A01 T02640127  RH  043%=      5-min Rain = 0
KNH1 131550Z 14005KT 26/13 A2996 RMK A01 T02640125  RH  042%=      5-min Rain = 0
KNH1 131551Z 13005KT 26/13 A2996 RMK A01 T02640128  RH  043%=      5-min Rain = 0
KNH1 131552Z 14006KT 26/13 A2996 RMK A01 T02640127  RH  042%=      5-min Rain = 0
KNH1 131553Z 13003KT 27/13 A2996 RMK A01 T02650128  RH  043%=      5-min Rain = 0
KNH1 131554Z 13003KT 27/13 A2996 RMK A01 T02650129  RH  043%=      5-min Rain = 0
KNH1 131555Z 13004KT 27/13 A2996 RMK A01 T02660128  RH  043%=      5-min Rain = 0
KNH1 131556Z 13005KT 27/13 A2996 RMK A01 T02670128  RH  042%=      5-min Rain = 0
KNH1 131557Z 13005KT 27/13 A2996 RMK A01 T02680126  RH  042%=      5-min Rain = 0
KNH1 131558Z 13007KT 27/13 A2996 RMK A01 T02660126  RH  042%=      5-min Rain = 0
KNH1 131559Z 13005KT 27/13 A2996 RMK A01 T02660125  RH  042%=      5-min Rain = 0
KNH1 131600Z 14005KT 27/13 A2996 RMK A01 T02660126  RH  042%=      5-min Rain = 0
KNH1 131601Z 15004KT 27/13 A2996 RMK A01 T02660126  RH  042%=      5-min Rain = 0
KNH1 131602Z 12006KT 27/13 A2996 RMK A01 T02670126  RH  042%=      5-min Rain = 0
KNH1 131603Z 13006KT 27/13 A2995 RMK A01 T02670125  RH  041%=      5-min Rain = 0
KNH1 131604Z 13006KT 27/12 A2995 RMK A01 T02670123  RH  041%=      5-min Rain = 0
KNH1 131605Z 14006KT 27/12 A2995 RMK A01 T02660119  RH  040%=      5-min Rain = 0
KNH1 131606Z 13006KT 27/12 A2995 RMK A01 T02650119  RH  040%=      5-min Rain = 0
KNH1 131607Z 14006KT 27/12 A2995 RMK A01 T02650122  RH  041%=      5-min Rain = 0
KNH1 131608Z 13006KT 27/12 A2995 RMK A01 T02650120  RH  041%=      5-min Rain = 0
KNH1 131609Z 14005KT 27/12 A2995 RMK A01 T02650121  RH  041%=      5-min Rain = 0
KNH1 131610Z 14006KT 27/12 A2995 RMK A01 T02650122  RH  041%=      5-min Rain = 0
KNH1 131611Z 14007KT 27/12 A2995 RMK A01 T02660121  RH  041%=      5-min Rain = 0
KNH1 131612Z 14008KT 27/12 A2995 RMK A01 T02650118  RH  040%=      5-min Rain = 0
KNH1 131613Z 14006KT 27/12 A2995 RMK A01 T02650117  RH  040%=      5-min Rain = 0
KNH1 131614Z 14006KT 27/12 A2995 RMK A01 T02650117  RH  040%=      5-min Rain = 0
KNH1 131615Z 15004KT 27/12 A2995 RMK A01 T02650118  RH  040%=      5-min Rain = 0
KNH1 131616Z 14006KT 27/12 A2995 RMK A01 T02650120  RH  040%=      5-min Rain = 0
KNH1 131617Z 15006KT 27/12 A2995 RMK A01 T02660118  RH  040%=      5-min Rain = 0
KNH1 131618Z 16005KT 27/12 A2995 RMK A01 T02660117  RH  039%=      5-min Rain = 0
KNH1 131619Z 14006KT 27/12 A2995 RMK A01 T02660119  RH  040%=      5-min Rain = 0
KNH1 131620Z 13006KT 27/12 A2995 RMK A01 T02650120  RH  040%=      5-min Rain = 0
KNH1 131621Z 14006KT 27/12 A2995 RMK A01 T02660121  RH  040%=      5-min Rain = 0
KNH1 131622Z 15005KT 27/12 A2995 RMK A01 T02660120  RH  040%=      5-min Rain = 0
KNH1 131623Z 16004KT 27/12 A2995 RMK A01 T02660122  RH  041%=      5-min Rain = 0
KNH1 131624Z 14005KT 27/12 A2995 RMK A01 T02670121  RH  040%=      5-min Rain = 0
KNH1 131625Z 14004KT 27/12 A2995 RMK A01 T02670123  RH  041%=      5-min Rain = 0
KNH1 131626Z 13005KT 27/12 A2995 RMK A01 T02670120  RH  040%=      5-min Rain = 0
KNH1 131627Z 15006KT 27/12 A2995 RMK A01 T02670122  RH  040%=      5-min Rain = 0
KNH1 131628Z 14005KT 27/12 A2995 RMK A01 T02670121  RH  040%=      5-min Rain = 0
KNH1 131629Z 15005KT 27/13 A2995 RMK A01 T02690125  RH  041%=      5-min Rain = 0
KNH1 131630Z 15004KT 27/13 A2995 RMK A01 T02730128  RH  041%=      5-min Rain = 0
KNH1 131631Z 15003G8KT 28/13 A2995 RMK A01 T02770128  RH  040%=      5-min Rain = 0
KNH1 131632Z 14007KT 28/13 A2995 RMK A01 T02800126  RH  039%=      5-min Rain = 0
KNH1 131633Z 15008KT 28/12 A2995 RMK A01 T02800122  RH  038%=      5-min Rain = 0
KNH1 131634Z 14008KT 28/12 A2995 RMK A01 T02790121  RH  038%=      5-min Rain = 0
KNH1 131635Z 15005KT 28/12 A2995 RMK A01 T02790124  RH  038%=      5-min Rain = 0
KNH1 131636Z 14006G11KT 28/13 A2995 RMK A01 T02810126  RH  038%=      5-min Rain = 0
KNH1 131637Z 15008KT 28/12 A2995 RMK A01 T02830122  RH  037%=      5-min Rain = 0
KNH1 131638Z 14005KT 28/12 A2995 RMK A01 T02840121  RH  037%=      5-min Rain = 0
KNH1 131639Z 15007KT 29/12 A2995 RMK A01 T02850123  RH  037%=      5-min Rain = 0
KNH1 131640Z 16006KT 29/12 A2995 RMK A01 T02860123  RH  036%=      5-min Rain = 0
KNH1 131641Z 16005KT 29/12 A2995 RMK A01 T02870119  RH  036%=      5-min Rain = 0
KNH1 131642Z 17006KT 29/12 A2995 RMK A01 T02870119  RH  035%=      5-min Rain = 0
KNH1 131643Z 16009KT 29/12 A2995 RMK A01 T02870116  RH  035%=      5-min Rain = 0
KNH1 131644Z 16008KT 29/11 A2995 RMK A01 T02850113  RH  034%=      5-min Rain = 0
KNH1 131645Z 16008KT 28/11 A2995 RMK A01 T02840114  RH  035%=      5-min Rain = 0
KNH1 131646Z 17008KT 29/12 A2995 RMK A01 T02850115  RH  035%=      5-min Rain = 0
KNH1 131647Z 18009KT 29/12 A2995 RMK A01 T02860115  RH  035%=      5-min Rain = 0
KNH1 131648Z 17008KT 29/11 A2995 RMK A01 T02860114  RH  034%=      5-min Rain = 0
KNH1 131649Z 17008KT 29/12 A2995 RMK A01 T02860115  RH  035%=      5-min Rain = 0
KNH1 131650Z 18008KT 29/12 A2995 RMK A01 T02860115  RH  035%=      5-min Rain = 0
KNH1 131651Z 17008KT 29/11 A2995 RMK A01 T02860114  RH  034%=      5-min Rain = 0
KNH1 131652Z 15006KT 29/12 A2995 RMK A01 T02860117  RH  035%=      5-min Rain = 0
KNH1 131653Z 15008KT 29/12 A2995 RMK A01 T02880116  RH  034%=      5-min Rain = 0
KNH1 131654Z 15006KT 29/12 A2995 RMK A01 T02890116  RH  034%=      5-min Rain = 0
KNH1 131655Z 16005KT 29/12 A2995 RMK A01 T02900117  RH  034%=      5-min Rain = 0
KNH1 131656Z 14005KT 29/12 A2995 RMK A01 T02910119  RH  035%=      5-min Rain = 0
KNH1 131657Z 15007KT 29/12 A2995 RMK A01 T02940120  RH  034%=      5-min Rain = 0
KNH1 131658Z 13007KT 30/12 A2995 RMK A01 T02950118  RH  034%=      5-min Rain = 0
KNH1 131659Z 14007KT 29/12 A2995 RMK A01 T02940119  RH  034%=      5-min Rain = 0
KNH1 131700Z 16006KT 30/12 A2995 RMK A01 T02950117  RH  033%=      5-min Rain = 0
KNH1 131701Z 16006KT 30/12 A2995 RMK A01 T02950116  RH  033%=      5-min Rain = 0
KNH1 131702Z 14007KT 30/12 A2995 RMK A01 T02950117  RH  033%=      5-min Rain = 0
KNH1 131703Z 15005KT 30/12 A2995 RMK A01 T02950119  RH  034%=      5-min Rain = 0
KNH1 131704Z 14007KT 30/12 A2995 RMK A01 T02960117  RH  033%=      5-min Rain = 0
KNH1 131705Z 14006KT 30/12 A2994 RMK A01 T02960117  RH  033%=      5-min Rain = 0
KNH1 131706Z 12006KT 30/12 A2994 RMK A01 T02960120  RH  034%=      5-min Rain = 0
KNH1 131707Z 13009KT 30/12 A2994 RMK A01 T02970119  RH  033%=      5-min Rain = 0
KNH1 131708Z 13007KT 30/12 A2994 RMK A01 T02970116  RH  033%=      5-min Rain = 0
KNH1 131709Z 13006KT 30/12 A2994 RMK A01 T02970120  RH  034%=      5-min Rain = 0
KNH1 131710Z 15007KT 30/12 A2994 RMK A01 T02990122  RH  034%=      5-min Rain = 0
KNH1 131711Z 14009KT 30/12 A2994 RMK A01 T03010118  RH  033%=      5-min Rain = 0
KNH1 131712Z 13006KT 30/12 A2994 RMK A01 T03000120  RH  033%=      5-min Rain = 0
KNH1 131713Z 14007KT 30/12 A2994 RMK A01 T03000118  RH  033%=      5-min Rain = 0
KNH1 131714Z 14006KT 30/12 A2994 RMK A01 T03010118  RH  032%=      5-min Rain = 0
KNH1 131715Z 15006KT 30/12 A2994 RMK A01 T03010119  RH  033%=      5-min Rain = 0
KNH1 131716Z 15005KT 30/12 A2994 RMK A01 T03010116  RH  032%=      5-min Rain = 0
KNH1 131717Z 14006KT 30/12 A2994 RMK A01 T03010118  RH  032%=      5-min Rain = 0
KNH1 131718Z 13008KT 30/12 A2994 RMK A01 T03020120  RH  033%=      5-min Rain = 0
KNH1 131719Z 13007G12KT 30/12 A2994 RMK A01 T03030119  RH  032%=      5-min Rain = 0
KNH1 131720Z 13011KT 30/12 A2994 RMK A01 T03030119  RH  032%=      5-min Rain = 0
KNH1 131721Z 13010KT 30/12 A2994 RMK A01 T03030116  RH  032%=      5-min Rain = 0
KNH1 131722Z 13008KT 30/12 A2994 RMK A01 T03020116  RH  032%=      5-min Rain = 0
KNH1 131723Z 13008KT 30/12 A2994 RMK A01 T03020117  RH  032%=      5-min Rain = 0
KNH1 131724Z 13011KT 30/12 A2994 RMK A01 T03020115  RH  032%=      5-min Rain = 0
KNH1 131725Z 13009KT 30/11 A2994 RMK A01 T03020114  RH  031%=      5-min Rain = 0
KNH1 131726Z 12009KT 30/12 A2994 RMK A01 T03020116  RH  032%=      5-min Rain = 0
KNH1 131727Z 13008KT 30/12 A2994 RMK A01 T03020117  RH  032%=      5-min Rain = 0
KNH1 131728Z 14009KT 30/12 A2994 RMK A01 T03040116  RH  031%=      5-min Rain = 0
KNH1 131729Z 14007KT 30/11 A2994 RMK A01 T03040113  RH  031%=      5-min Rain = 0
KNH1 131730Z 13006KT 30/12 A2994 RMK A01 T03030115  RH  031%=      5-min Rain = 0
KNH1 131731Z 13007KT 30/12 A2994 RMK A01 T03040117  RH  032%=      5-min Rain = 0
KNH1 131732Z 14006KT 31/12 A2994 RMK A01 T03060117  RH  031%=      5-min Rain = 0
KNH1 131733Z 13007G12KT 31/12 A2994 RMK A01 T03070117  RH  031%=      5-min Rain = 0
KNH1 131734Z 13011KT 31/12 A2993 RMK A01 T03080115  RH  031%=      5-min Rain = 0
KNH1 131735Z 13009KT 31/11 A2993 RMK A01 T03080114  RH  030%=      5-min Rain = 0
KNH1 131736Z 13008KT 31/11 A2993 RMK A01 T03080114  RH  030%=      5-min Rain = 0
KNH1 131737Z 13007KT 31/11 A2993 RMK A01 T03080113  RH  030%=      5-min Rain = 0
KNH1 131738Z 12007KT 31/12 A2993 RMK A01 T03090115  RH  030%=      5-min Rain = 0
KNH1 131739Z 12007KT 31/12 A2993 RMK A01 T03100116  RH  030%=      5-min Rain = 0
KNH1 131740Z 13009KT 31/12 A2993 RMK A01 T03120115  RH  030%=      5-min Rain = 0
KNH1 131741Z 14009KT 31/11 A2993 RMK A01 T03120112  RH  029%=      5-min Rain = 0
KNH1 131742Z 14007KT 31/11 A2993 RMK A01 T03100112  RH  030%=      5-min Rain = 0
KNH1 131743Z 13007KT 31/11 A2993 RMK A01 T03090113  RH  030%=      5-min Rain = 0
KNH1 131744Z 14008KT 31/11 A2993 RMK A01 T03080113  RH  030%=      5-min Rain = 0
KNH1 131745Z 15008KT 31/11 A2993 RMK A01 T03080112  RH  030%=      5-min Rain = 0
KNH1 131746Z 14006KT 31/11 A2993 RMK A01 T03090111  RH  030%=      5-min Rain = 0
KNH1 131747Z 14008KT 31/11 A2993 RMK A01 T03100111  RH  029%=      5-min Rain = 0
KNH1 131748Z 13008KT 31/11 A2993 RMK A01 T03110110  RH  029%=      5-min Rain = 0
KNH1 131749Z 13005KT 31/11 A2993 RMK A01 T03110111  RH  029%=      5-min Rain = 0
KNH1 131750Z 15009KT 31/11 A2993 RMK A01 T03130113  RH  029%=      5-min Rain = 0
KNH1 131751Z 14009KT 31/11 A2993 RMK A01 T03130108  RH  028%=      5-min Rain = 0
KNH1 131752Z 13009KT 31/11 A2993 RMK A01 T03100110  RH  029%=      5-min Rain = 0
KNH1 131753Z 13007KT 31/11 A2993 RMK A01 T03100110  RH  029%=      5-min Rain = 0
KNH1 131754Z 13004KT 31/11 A2993 RMK A01 T03110111  RH  029%=      5-min Rain = 0
KNH1 131755Z 14005KT 31/12 A2993 RMK A01 T03130115  RH  030%=      5-min Rain = 0
KNH1 131756Z 14006G11KT 32/11 A2993 RMK A01 T03150111  RH  029%=      5-min Rain = 0
KNH1 131757Z 14006KT 32/11 A2993 RMK A01 T03160111  RH  028%=      5-min Rain = 0
KNH1 131758Z 12008KT 32/11 A2993 RMK A01 T03160111  RH  028%=      5-min Rain = 0
KNH1 131759Z 13007KT 32/12 A2993 RMK A01 T03160115  RH  029%=      5-min Rain = 0
KNH1 131800Z 13006KT 32/11 A2993 RMK A01 T03170112  RH  028%=      5-min Rain = 0
KNH1 131801Z 14006KT 32/12 A2993 RMK A01 T03190115  RH  029%=      5-min Rain = 0
KNH1 131802Z 14009KT 32/11 A2993 RMK A01 T03210113  RH  028%=      5-min Rain = 0
KNH1 131803Z 14009KT 32/11 A2993 RMK A01 T03200109  RH  027%=      5-min Rain = 0
KNH1 131804Z 14005KT 32/11 A2993 RMK A01 T03160107  RH  028%=      5-min Rain = 0
KNH1 131805Z 13007KT 32/11 A2993 RMK A01 T03150113  RH  029%=      5-min Rain = 0
KNH1 131806Z 13007KT 32/11 A2993 RMK A01 T03180114  RH  029%=      5-min Rain = 0
KNH1 131807Z 13006KT 32/11 A2993 RMK A01 T03180111  RH  028%=      5-min Rain = 0
KNH1 131808Z 13007KT 32/11 A2993 RMK A01 T03200113  RH  028%=      5-min Rain = 0
KNH1 131809Z 13007KT 32/11 A2993 RMK A01 T03220111  RH  028%=      5-min Rain = 0
KNH1 131810Z 13006KT 32/11 A2993 RMK A01 T03220112  RH  027%=      5-min Rain = 0
KNH1 131811Z 12005KT 32/11 A2993 RMK A01 T03230110  RH  027%=      5-min Rain = 0
KNH1 131812Z 13006KT 32/11 A2993 RMK A01 T03230113  RH  028%=      5-min Rain = 0
KNH1 131813Z 12009KT 32/11 A2993 RMK A01 T03240110  RH  027%=      5-min Rain = 0
KNH1 131814Z 13007KT 32/11 A2993 RMK A01 T03240110  RH  027%=      5-min Rain = 0
KNH1 131815Z 10007KT 32/11 A2992 RMK A01 T03210108  RH  027%=      5-min Rain = 0
KNH1 131816Z 12007KT 32/11 A2992 RMK A01 T03200113  RH  028%=      5-min Rain = 0
KNH1 131817Z 12006KT 32/11 A2992 RMK A01 T03240114  RH  028%=      5-min Rain = 0
KNH1 131818Z 13007KT 33/11 A2992 RMK A01 T03250110  RH  027%=      5-min Rain = 0
KNH1 131819Z 11007KT 33/11 A2992 RMK A01 T03250113  RH  027%=      5-min Rain = 0
KNH1 131820Z 11006KT 33/11 A2992 RMK A01 T03250110  RH  027%=      5-min Rain = 0
KNH1 131821Z 13006G13KT 32/11 A2992 RMK A01 T03230113  RH  028%=      5-min Rain = 0
KNH1 131822Z 14008KT 32/11 A2992 RMK A01 T03240112  RH  027%=      5-min Rain = 0
KNH1 131823Z 13006KT 32/11 A2992 RMK A01 T03240112  RH  027%=      5-min Rain = 0
KNH1 131824Z 14006KT 32/11 A2992 RMK A01 T03240110  RH  027%=      5-min Rain = 0
KNH1 131825Z 14006KT 32/11 A2992 RMK A01 T03220108  RH  027%=      5-min Rain = 0
KNH1 131826Z 14006KT 32/11 A2992 RMK A01 T03210110  RH  028%=      5-min Rain = 0
KNH1 131827Z 14005KT 32/11 A2992 RMK A01 T03220110  RH  027%=      5-min Rain = 0
KNH1 131828Z 13005KT 32/11 A2992 RMK A01 T03230110  RH  027%=      5-min Rain = 0
KNH1 131829Z 11007KT 32/11 A2992 RMK A01 T03240111  RH  027%=      5-min Rain = 0
KNH1 131830Z 11007KT 33/11 A2992 RMK A01 T03250111  RH  027%=      5-min Rain = 0
KNH1 131831Z 14006KT 33/11 A2992 RMK A01 T03250113  RH  027%=      5-min Rain = 0
KNH1 131832Z 13009KT 33/11 A2992 RMK A01 T03270113  RH  027%=      5-min Rain = 0
KNH1 131833Z 15007KT 33/11 A2992 RMK A01 T03300112  RH  026%=      5-min Rain = 0
KNH1 131834Z 15006KT 33/11 A2992 RMK A01 T03310110  RH  026%=      5-min Rain = 0
KNH1 131835Z 15006KT 33/11 A2992 RMK A01 T03300111  RH  026%=      5-min Rain = 0
KNH1 131836Z 17006KT 33/11 A2992 RMK A01 T03280107  RH  026%=      5-min Rain = 0
KNH1 131837Z 16005KT 33/11 A2992 RMK A01 T03250109  RH  027%=      5-min Rain = 0
KNH1 131838Z 15003KT 33/11 A2992 RMK A01 T03250111  RH  027%=      5-min Rain = 0
KNH1 131839Z 13003KT 33/11 A2992 RMK A01 T03280114  RH  027%=      5-min Rain = 0
KNH1 131840Z 13008KT 33/11 A2992 RMK A01 T03320113  RH  026%=      5-min Rain = 0
KNH1 131841Z 15005KT 33/11 A2991 RMK A01 T03320109  RH  026%=      5-min Rain = 0
KNH1 131842Z 12010KT 33/11 A2991 RMK A01 T03310112  RH  026%=      5-min Rain = 0
KNH1 131843Z 11005KT 33/11 A2991 RMK A01 T03310111  RH  026%=      5-min Rain = 0
KNH1 131844Z 11006KT 33/11 A2991 RMK A01 T03330113  RH  026%=      5-min Rain = 0
KNH1 131845Z 12009KT 33/11 A2991 RMK A01 T03330113  RH  026%=      5-min Rain = 0
KNH1 131846Z 12007G12KT 33/11 A2991 RMK A01 T03330113  RH  026%=      5-min Rain = 0
KNH1 131847Z 13006KT 33/11 A2991 RMK A01 T03330113  RH  026%=      5-min Rain = 0
KNH1 131848Z 13006KT 33/11 A2991 RMK A01 T03340112  RH  026%=      5-min Rain = 0
KNH1 131849Z 13005KT 33/11 A2991 RMK A01 T03330110  RH  026%=      5-min Rain = 0
KNH1 131850Z 14008KT 33/11 A2991 RMK A01 T03320112  RH  026%=      5-min Rain = 0
KNH1 131851Z 12007KT 33/11 A2991 RMK A01 T03320112  RH  026%=      5-min Rain = 0
KNH1 131852Z 15007KT 33/11 A2991 RMK A01 T03330112  RH  026%=      5-min Rain = 0
KNH1 131853Z 15005KT 33/11 A2991 RMK A01 T03330108  RH  025%=      5-min Rain = 0
KNH1 131854Z 16005KT 33/11 A2991 RMK A01 T03310109  RH  026%=      5-min Rain = 0
KNH1 131855Z 15004KT 33/11 A2991 RMK A01 T03300111  RH  026%=      5-min Rain = 0
KNH1 131856Z 12004KT 33/11 A2991 RMK A01 T03310109  RH  026%=      5-min Rain = 0
KNH1 131857Z 14007KT 33/11 A2991 RMK A01 T03320112  RH  026%=      5-min Rain = 0
KNH1 131858Z 11008KT 33/11 A2991 RMK A01 T03340111  RH  026%=      5-min Rain = 0
KNH1 131859Z 11009KT 34/11 A2991 RMK A01 T03350109  RH  025%=      5-min Rain = 0
KNH1 131900Z 12006G13KT 33/11 A2991 RMK A01 T03330111  RH  026%=      5-min Rain = 0
KNH1 131901Z 13008G13KT 33/11 A2991 RMK A01 T03320111  RH  026%=      5-min Rain = 0
KNH1 131902Z 11007KT 33/11 A2991 RMK A01 T03340113  RH  026%=      5-min Rain = 0
KNH1 131903Z 13005KT 34/11 A2991 RMK A01 T03370110  RH  025%=      5-min Rain = 0
KNH1 131904Z 15005KT 34/11 A2991 RMK A01 T03360111  RH  025%=      5-min Rain = 0
KNH1 131905Z 15006KT 34/11 A299 RMK A01 T03370108  RH  025%=      5-min Rain = 0
KNH1 131906Z 14005KT 34/11 A299 RMK A01 T03350110  RH  025%=      5-min Rain = 0
KNH1 131907Z 14007G13KT 34/11 A299 RMK A01 T03370112  RH  025%=      5-min Rain = 0
KNH1 131908Z 13008KT 34/11 A299 RMK A01 T03380108  RH  025%=      5-min Rain = 0
KNH1 131909Z 13007KT 34/11 A299 RMK A01 T03380110  RH  025%=      5-min Rain = 0
KNH1 131910Z 11006KT 34/11 A299 RMK A01 T03380109  RH  025%=      5-min Rain = 0
KNH1 131911Z 12007KT 34/11 A299 RMK A01 T03360107  RH  025%=      5-min Rain = 0
KNH1 131912Z 10008KT 33/11 A299 RMK A01 T03340106  RH  025%=      5-min Rain = 0
KNH1 131913Z 10007KT 33/11 A299 RMK A01 T03320108  RH  025%=      5-min Rain = 0
KNH1 131914Z 11008KT 33/11 A299 RMK A01 T03330110  RH  026%=      5-min Rain = 0
KNH1 131915Z 11006KT 34/11 A299 RMK A01 T03360110  RH  025%=      5-min Rain = 0
KNH1 131916Z 12007KT 34/11 A299 RMK A01 T03390112  RH  025%=      5-min Rain = 0
KNH1 131917Z 14007KT 34/11 A299 RMK A01 T03400112  RH  025%=      5-min Rain = 0
KNH1 131918Z 15006KT 34/11 A299 RMK A01 T03390111  RH  025%=      5-min Rain = 0
KNH1 131919Z 16007KT 34/10 A299 RMK A01 T03400101  RH  023%=      5-min Rain = 0
KNH1 131920Z 16004KT 34/10 A299 RMK A01 T03350096  RH  023%=      5-min Rain = 0
KNH1 131921Z 16005KT 34/10 A299 RMK A01 T03350100  RH  024%=      5-min Rain = 0
KNH1 131922Z 16003KT 33/10 A2989 RMK A01 T03340102  RH  024%=      5-min Rain = 0
KNH1 131923Z 13004KT 34/11 A2989 RMK A01 T03360106  RH  025%=      5-min Rain = 0
KNH1 131924Z 12004KT 34/11 A2989 RMK A01 T03390109  RH  025%=      5-min Rain = 0
KNH1 131925Z 11008KT 34/11 A2989 RMK A01 T03410107  RH  024%=      5-min Rain = 0
KNH1 131926Z 12009G14KT 34/11 A2989 RMK A01 T03410107  RH  024%=      5-min Rain = 0
KNH1 131927Z 13008KT 34/11 A2989 RMK A01 T03400107  RH  024%=      5-min Rain = 0
KNH1 131928Z 12007KT 34/11 A2989 RMK A01 T03400108  RH  024%=      5-min Rain = 0
KNH1 131929Z 13008KT 34/11 A2989 RMK A01 T03410109  RH  024%=      5-min Rain = 0
KNH1 131930Z 13009KT 34/11 A2989 RMK A01 T03420107  RH  024%=      5-min Rain = 0
KNH1 131931Z 12006KT 34/11 A2989 RMK A01 T03420107  RH  024%=      5-min Rain = 0
KNH1 131932Z 14007KT 34/11 A2989 RMK A01 T03440108  RH  024%=      5-min Rain = 0
KNH1 131933Z 12006KT 34/11 A2989 RMK A01 T03430107  RH  024%=      5-min Rain = 0
KNH1 131934Z 12004KT 34/11 A2989 RMK A01 T03430109  RH  024%=      5-min Rain = 0
KNH1 131935Z 12006KT 34/11 A2989 RMK A01 T03440108  RH  024%=      5-min Rain = 0
KNH1 131936Z 15005KT 34/11 A2989 RMK A01 T03440108  RH  024%=      5-min Rain = 0
KNH1 131937Z 13005KT 35/11 A2989 RMK A01 T03450110  RH  024%=      5-min Rain = 0
KNH1 131938Z 14005KT 35/11 A2989 RMK A01 T03450105  RH  023%=      5-min Rain = 0
KNH1 131939Z 11004KT 34/11 A2989 RMK A01 T03430108  RH  024%=      5-min Rain = 0
KNH1 131940Z 16007KT 35/11 A2989 RMK A01 T03460109  RH  024%=      5-min Rain = 0
KNH1 131941Z 17007KT 35/10 A2989 RMK A01 T03450102  RH  023%=      5-min Rain = 0
KNH1 131942Z 14003KT 34/10 A2989 RMK A01 T03410103  RH  023%=      5-min Rain = 0
KNH1 131943Z 10005KT 34/11 A2989 RMK A01 T03410105  RH  024%=      5-min Rain = 0
KNH1 131944Z 11005KT 34/10 A2989 RMK A01 T03410101  RH  023%=      5-min Rain = 0
KNH1 131945Z 11005KT 34/10 A2988 RMK A01 T03390104  RH  024%=      5-min Rain = 0
KNH1 131946Z 13004KT 34/11 A2988 RMK A01 T03390106  RH  024%=      5-min Rain = 0
KNH1 131947Z 12006KT 34/11 A2988 RMK A01 T03400108  RH  024%=      5-min Rain = 0
KNH1 131948Z 13007G12KT 34/11 A2988 RMK A01 T03420106  RH  024%=      5-min Rain = 0
KNH1 131949Z 13006G12KT 34/11 A2988 RMK A01 T03430105  RH  023%=      5-min Rain = 0
KNH1 131950Z 14006KT 34/11 A2988 RMK A01 T03440107  RH  024%=      5-min Rain = 0
KNH1 131951Z 15007KT 35/11 A2988 RMK A01 T03450107  RH  024%=      5-min Rain = 0
KNH1 131952Z 14007KT 35/11 A2988 RMK A01 T03450106  RH  023%=      5-min Rain = 0
KNH1 131953Z 14004KT 34/11 A2988 RMK A01 T03440107  RH  024%=      5-min Rain = 0
KNH1 131954Z 15003KT 35/10 A2988 RMK A01 T03470104  RH  023%=      5-min Rain = 0
KNH1 131955Z 14003KT 35/10 A2988 RMK A01 T03460102  RH  023%=      5-min Rain = 0
KNH1 131956Z 17004KT 35/10 A2988 RMK A01 T03450103  RH  023%=      5-min Rain = 0
KNH1 131957Z 12004KT 34/11 A2988 RMK A01 T03440105  RH  023%=      5-min Rain = 0
KNH1 131958Z 13004KT 34/10 A2988 RMK A01 T03430103  RH  023%=      5-min Rain = 0
KNH1 131959Z 13004G9KT 34/11 A2988 RMK A01 T03420105  RH  024%=      5-min Rain = 0
KNH1 132000Z 14005KT 34/10 A2988 RMK A01 T03430104  RH  023%=      5-min Rain = 0
KNH1 132001Z 13006KT 35/11 A2988 RMK A01 T03450105  RH  023%=      5-min Rain = 0
KNH1 132002Z 13005KT 35/11 A2988 RMK A01 T03480105  RH  023%=      5-min Rain = 0
KNH1 132003Z 14005KT 35/10 A2987 RMK A01 T03490104  RH  023%=      5-min Rain = 0
KNH1 132004Z 15006KT 35/10 A2987 RMK A01 T03480104  RH  023%=      5-min Rain = 0
KNH1 132005Z 13006KT 35/11 A2987 RMK A01 T03460107  RH  023%=      5-min Rain = 0
KNH1 132006Z 12004KT 35/10 A2987 RMK A01 T03460104  RH  023%=      5-min Rain = 0
KNH1 132007Z 13005G11KT 34/11 A2987 RMK A01 T03440107  RH  024%=      5-min Rain = 0
KNH1 132008Z 13007KT 35/11 A2987 RMK A01 T03470110  RH  024%=      5-min Rain = 0
KNH1 132009Z 16006KT 35/11 A2987 RMK A01 T03490108  RH  023%=      5-min Rain = 0
KNH1 132010Z 17007KT 35/10 A2987 RMK A01 T03480099  RH  022%=      5-min Rain = 0
KNH1 132011Z 17006KT 34/10 A2987 RMK A01 T03440102  RH  023%=      5-min Rain = 0
KNH1 132012Z 16007KT 34/10 A2987 RMK A01 T03420104  RH  023%=      5-min Rain = 0
KNH1 132013Z 15007KT 34/10 A2987 RMK A01 T03420104  RH  023%=      5-min Rain = 0
KNH1 132014Z 16007KT 34/10 A2987 RMK A01 T03430103  RH  023%=      5-min Rain = 0
KNH1 132015Z 14005KT 34/10 A2987 RMK A01 T03430104  RH  023%=      5-min Rain = 0
KNH1 132016Z 12006KT 34/10 A2987 RMK A01 T03440104  RH  023%=      5-min Rain = 0
KNH1 132017Z 12002KT 34/10 A2987 RMK A01 T03420103  RH  023%=      5-min Rain = 0
KNH1 132018Z 14003KT 34/10 A2987 RMK A01 T03420103  RH  023%=      5-min Rain = 0
KNH1 132019Z 14008KT 34/11 A2987 RMK A01 T03420105  RH  024%=      5-min Rain = 0
KNH1 132020Z 12007KT 34/11 A2987 RMK A01 T03430106  RH  024%=      5-min Rain = 0
KNH1 132021Z 11007KT 35/11 A2987 RMK A01 T03450105  RH  023%=      5-min Rain = 0
KNH1 132022Z 13004KT 35/10 A2987 RMK A01 T03450103  RH  023%=      5-min Rain = 0
KNH1 132023Z 16006KT 34/10 A2987 RMK A01 T03440103  RH  023%=      5-min Rain = 0
KNH1 132024Z 15005KT 34/11 A2987 RMK A01 T03430105  RH  024%=      5-min Rain = 0
KNH1 132025Z 17008KT 35/10 A2987 RMK A01 T03450099  RH  022%=      5-min Rain = 0
KNH1 132026Z 16007KT 35/09 A2987 RMK A01 T03460093  RH  021%=      5-min Rain = 0
KNH1 132027Z 19008KT 35/09 A2987 RMK A01 T03450094  RH  022%=      5-min Rain = 0
KNH1 132028Z 21006KT 35/09 A2987 RMK A01 T03460093  RH  021%=      5-min Rain = 0
KNH1 132029Z 25004KT 34/09 A2986 RMK A01 T03440094  RH  022%=      5-min Rain = 0
KNH1 132030Z 27003KT 34/10 A2986 RMK A01 T03420095  RH  022%=      5-min Rain = 0
KNH1 132031Z 26004KT 34/09 A2986 RMK A01 T03420094  RH  022%=      5-min Rain = 0
KNH1 132032Z 20003KT 34/10 A2986 RMK A01 T03430097  RH  022%=      5-min Rain = 0
KNH1 132033Z 16005KT 34/10 A2986 RMK A01 T03440096  RH  022%=      5-min Rain = 0
KNH1 132034Z 18010KT 35/09 A2986 RMK A01 T03460093  RH  021%=      5-min Rain = 0
KNH1 132035Z 18007KT 35/10 A2986 RMK A01 T03480095  RH  021%=      5-min Rain = 0
KNH1 132036Z 16005KT 35/09 A2986 RMK A01 T03510093  RH  021%=      5-min Rain = 0
KNH1 132037Z 17006KT 35/09 A2986 RMK A01 T03510092  RH  021%=      5-min Rain = 0
KNH1 132038Z 18007KT 35/09 A2986 RMK A01 T03510092  RH  021%=      5-min Rain = 0
KNH1 132039Z 17005KT 35/09 A2986 RMK A01 T03500091  RH  021%=      5-min Rain = 0
KNH1 132040Z 14007KT 35/10 A2986 RMK A01 T03490100  RH  022%=      5-min Rain = 0
KNH1 132041Z 12003KT 35/10 A2986 RMK A01 T03480104  RH  023%=      5-min Rain = 0
KNH1 132042Z 18003KT 35/10 A2986 RMK A01 T03490103  RH  022%=      5-min Rain = 0
KNH1 132043Z 18005KT 35/10 A2986 RMK A01 T03480100  RH  022%=      5-min Rain = 0
KNH1 132044Z 20006KT 35/10 A2986 RMK A01 T03460099  RH  022%=      5-min Rain = 0
KNH1 132045Z 18007KT 35/10 A2986 RMK A01 T03460100  RH  022%=      5-min Rain = 0
KNH1 132046Z 11005KT 35/10 A2986 RMK A01 T03460102  RH  023%=      5-min Rain = 0
KNH1 132047Z 11009G15KT 35/10 A2986 RMK A01 T03470099  RH  022%=      5-min Rain = 0
KNH1 132048Z 18010G16KT 35/10 A2986 RMK A01 T03480099  RH  022%=      5-min Rain = 0
KNH1 132049Z 18006KT 35/09 A2986 RMK A01 T03490094  RH  021%=      5-min Rain = 0
KNH1 132050Z 16005KT 35/10 A2986 RMK A01 T03500097  RH  021%=      5-min Rain = 0
KNH1 132051Z 15006KT 35/10 A2986 RMK A01 T03500099  RH  022%=      5-min Rain = 0
KNH1 132052Z 12005KT 35/10 A2986 RMK A01 T03490101  RH  022%=      5-min Rain = 0
KNH1 132053Z 13007KT 35/10 A2986 RMK A01 T03500103  RH  022%=      5-min Rain = 0
KNH1 132054Z 18008KT 35/10 A2986 RMK A01 T03530099  RH  021%=      5-min Rain = 0
KNH1 132055Z 18007KT 35/09 A2986 RMK A01 T03540089  RH  020%=      5-min Rain = 0
KNH1 132056Z 19010KT 35/09 A2986 RMK A01 T03520088  RH  020%=      5-min Rain = 0
KNH1 132057Z 18011KT 35/09 A2986 RMK A01 T03510086  RH  020%=      5-min Rain = 0
KNH1 132058Z 18009KT 35/08 A2986 RMK A01 T03480081  RH  019%=      5-min Rain = 0
KNH1 132059Z 17008KT 35/08 A2986 RMK A01 T03460083  RH  020%=      5-min Rain = 0
KNH1 132100Z 16007G12KT 35/09 A2986 RMK A01 T03470086  RH  020%=      5-min Rain = 0
KNH1 132101Z 18008KT 35/09 A2986 RMK A01 T03490085  RH  020%=      5-min Rain = 0
KNH1 132102Z 18007KT 35/09 A2986 RMK A01 T03480087  RH  020%=      5-min Rain = 0
KNH1 132103Z 18005KT 35/09 A2986 RMK A01 T03490087  RH  020%=      5-min Rain = 0
KNH1 132104Z 15007KT 35/09 A2986 RMK A01 T03490087  RH  020%=      5-min Rain = 0
KNH1 132105Z 16007KT 35/09 A2986 RMK A01 T03490086  RH  020%=      5-min Rain = 0
KNH1 132106Z 17007KT 35/09 A2986 RMK A01 T03490086  RH  020%=      5-min Rain = 0
KNH1 132107Z 17007KT 35/09 A2986 RMK A01 T03480087  RH  020%=      5-min Rain = 0
KNH1 132108Z 17006KT 35/09 A2986 RMK A01 T03480088  RH  020%=      5-min Rain = 0
KNH1 132109Z 16005KT 35/09 A2985 RMK A01 T03470088  RH  020%=      5-min Rain = 0
KNH1 132110Z 20005KT 35/09 A2985 RMK A01 T03480089  RH  020%=      5-min Rain = 0
KNH1 132111Z 20006KT 35/09 A2985 RMK A01 T03490090  RH  020%=      5-min Rain = 0
KNH1 132112Z 17006KT 35/09 A2985 RMK A01 T03500089  RH  020%=      5-min Rain = 0
KNH1 132113Z 18006KT 35/09 A2985 RMK A01 T03490089  RH  020%=      5-min Rain = 0
KNH1 132114Z 18005KT 35/09 A2985 RMK A01 T03480091  RH  021%=      5-min Rain = 0
KNH1 132115Z 19007KT 35/09 A2985 RMK A01 T03500091  RH  020%=      5-min Rain = 0
KNH1 132116Z 20007KT 35/09 A2985 RMK A01 T03510089  RH  020%=      5-min Rain = 0
KNH1 132117Z 18007KT 35/09 A2985 RMK A01 T03500090  RH  020%=      5-min Rain = 0
KNH1 132118Z 18008KT 35/09 A2985 RMK A01 T03480088  RH  020%=      5-min Rain = 0
KNH1 132119Z 16008KT 35/09 A2985 RMK A01 T03470089  RH  021%=      5-min Rain = 0
KNH1 132120Z 16006KT 35/09 A2985 RMK A01 T03480087  RH  020%=      5-min Rain = 0
KNH1 132121Z 17007KT 35/09 A2985 RMK A01 T03490089  RH  020%=      5-min Rain = 0
KNH1 132122Z 14008KT 35/09 A2985 RMK A01 T03500087  RH  020%=      5-min Rain = 0
KNH1 132123Z 16007KT 35/09 A2985 RMK A01 T03500087  RH  020%=      5-min Rain = 0
KNH1 132124Z 17006KT 35/09 A2985 RMK A01 T03500086  RH  020%=      5-min Rain = 0
KNH1 132125Z 16005KT 35/09 A2985 RMK A01 T03490086  RH  020%=      5-min Rain = 0
KNH1 132126Z 21005KT 35/09 A2985 RMK A01 T03500090  RH  020%=      5-min Rain = 0
KNH1 132127Z 22008KT 35/09 A2985 RMK A01 T03520087  RH  020%=      5-min Rain = 0
KNH1 132128Z 23006KT 35/09 A2985 RMK A01 T03500085  RH  020%=      5-min Rain = 0
KNH1 132129Z 26004KT 35/09 A2985 RMK A01 T03470087  RH  020%=      5-min Rain = 0
KNH1 132130Z 25004KT 35/09 A2985 RMK A01 T03460085  RH  020%=      5-min Rain = 0
KNH1 132131Z 22004KT 35/09 A2985 RMK A01 T03460087  RH  020%=      5-min Rain = 0
KNH1 132132Z 18002KT 35/09 A2985 RMK A01 T03480088  RH  020%=      5-min Rain = 0
KNH1 132133Z 18005KT 35/09 A2985 RMK A01 T03510088  RH  020%=      5-min Rain = 0
KNH1 132134Z 20004KT 35/09 A2985 RMK A01 T03520088  RH  020%=      5-min Rain = 0
KNH1 132135Z 22005KT 35/09 A2985 RMK A01 T03520087  RH  020%=      5-min Rain = 0
KNH1 132136Z 23006G11KT 35/09 A2985 RMK A01 T03510089  RH  020%=      5-min Rain = 0
KNH1 132137Z 20010KT 35/09 A2985 RMK A01 T03510089  RH  020%=      5-min Rain = 0
KNH1 132138Z 19008KT 35/09 A2985 RMK A01 T03510088  RH  020%=      5-min Rain = 0
KNH1 132139Z 19011KT 35/09 A2985 RMK A01 T03500087  RH  020%=      5-min Rain = 0
KNH1 132140Z 19009KT 35/09 A2985 RMK A01 T03500089  RH  020%=      5-min Rain = 0
KNH1 132141Z 20010KT 35/09 A2985 RMK A01 T03500087  RH  020%=      5-min Rain = 0
KNH1 132142Z 21007KT 35/09 A2985 RMK A01 T03500089  RH  020%=      5-min Rain = 0
KNH1 132143Z 22007KT 35/09 A2985 RMK A01 T03500086  RH  020%=      5-min Rain = 0
KNH1 132144Z 20007KT 35/09 A2985 RMK A01 T03470085  RH  020%=      5-min Rain = 0
KNH1 132145Z 22005KT 35/09 A2985 RMK A01 T03450085  RH  020%=      5-min Rain = 0
KNH1 132146Z 24004KT 34/09 A2984 RMK A01 T03440087  RH  021%=      5-min Rain = 0
KNH1 132147Z 18007KT 35/09 A2984 RMK A01 T03460090  RH  021%=      5-min Rain = 0
KNH1 132148Z 16004KT 35/09 A2984 RMK A01 T03480086  RH  020%=      5-min Rain = 0
KNH1 132149Z 17003KT 35/09 A2984 RMK A01 T03480087  RH  020%=      5-min Rain = 0
KNH1 132150Z 20006KT 35/09 A2984 RMK A01 T03480089  RH  021%=      5-min Rain = 0
KNH1 132151Z 22004KT 35/09 A2984 RMK A01 T03490086  RH  020%=      5-min Rain = 0
KNH1 132152Z 20005KT 35/09 A2984 RMK A01 T03490087  RH  020%=      5-min Rain = 0
KNH1 132153Z 20004KT 35/09 A2984 RMK A01 T03470085  RH  020%=      5-min Rain = 0
KNH1 132154Z 22006KT 35/09 A2984 RMK A01 T03460088  RH  021%=      5-min Rain = 0
KNH1 132155Z 22006KT 35/09 A2984 RMK A01 T03460087  RH  020%=      5-min Rain = 0
KNH1 132156Z 21004KT 35/09 A2984 RMK A01 T03460088  RH  021%=      5-min Rain = 0
KNH1 132157Z 19004KT 35/09 A2984 RMK A01 T03470089  RH  021%=      5-min Rain = 0
KNH1 132158Z 17005KT 35/09 A2984 RMK A01 T03490088  RH  020%=      5-min Rain = 0
KNH1 132159Z 16003KT 35/09 A2984 RMK A01 T03490089  RH  020%=      5-min Rain = 0
KNH1 132200Z 16004KT 35/09 A2984 RMK A01 T03500087  RH  020%=      5-min Rain = 0
KNH1 132201Z 16006KT 35/09 A2984 RMK A01 T03500088  RH  020%=      5-min Rain = 0
KNH1 132202Z 16005KT 35/09 A2984 RMK A01 T03500089  RH  020%=      5-min Rain = 0
KNH1 132203Z 19010KT 35/09 A2984 RMK A01 T03510089  RH  020%=      5-min Rain = 0
KNH1 132204Z 18007KT 35/09 A2984 RMK A01 T03510088  RH  020%=      5-min Rain = 0
KNH1 132205Z 17007KT 35/09 A2984 RMK A01 T03510089  RH  020%=      5-min Rain = 0
KNH1 132206Z 16005KT 35/09 A2984 RMK A01 T03490088  RH  020%=      5-min Rain = 0
KNH1 132207Z 16007KT 35/09 A2984 RMK A01 T03490089  RH  020%=      5-min Rain = 0
KNH1 132208Z 16006KT 35/09 A2984 RMK A01 T03480090  RH  021%=      5-min Rain = 0
KNH1 132209Z 17005KT 35/09 A2984 RMK A01 T03490089  RH  020%=      5-min Rain = 0
KNH1 132210Z 18004KT 35/09 A2984 RMK A01 T03490090  RH  020%=      5-min Rain = 0
KNH1 132211Z 17006KT 35/09 A2984 RMK A01 T03490091  RH  021%=      5-min Rain = 0
KNH1 132212Z 17007KT 35/09 A2984 RMK A01 T03510093  RH  021%=      5-min Rain = 0
KNH1 132213Z 17006KT 35/09 A2984 RMK A01 T03510088  RH  020%=      5-min Rain = 0
KNH1 132214Z 18005KT 35/09 A2984 RMK A01 T03500091  RH  021%=      5-min Rain = 0
KNH1 132215Z 18005KT 35/09 A2984 RMK A01 T03500092  RH  021%=      5-min Rain = 0
KNH1 132216Z 20007KT 35/09 A2984 RMK A01 T03500090  RH  020%=      5-min Rain = 0
KNH1 132217Z 21006KT 35/09 A2984 RMK A01 T03500090  RH  020%=      5-min Rain = 0
KNH1 132218Z 17005KT 35/09 A2984 RMK A01 T03510090  RH  020%=      5-min Rain = 0
KNH1 132219Z 15002KT 35/09 A2984 RMK A01 T03510089  RH  020%=      5-min Rain = 0
KNH1 132220Z 17002KT 35/09 A2984 RMK A01 T03510091  RH  020%=      5-min Rain = 0
KNH1 132221Z 17004KT 35/09 A2984 RMK A01 T03530089  RH  020%=      5-min Rain = 0
KNH1 132222Z 21004KT 35/09 A2984 RMK A01 T03520087  RH  020%=      5-min Rain = 0
KNH1 132223Z 19006KT 35/09 A2984 RMK A01 T03500090  RH  020%=      5-min Rain = 0
KNH1 132224Z 15002KT 35/09 A2984 RMK A01 T03500087  RH  020%=      5-min Rain = 0
KNH1 132225Z 19001KT 35/09 A2984 RMK A01 T03490087  RH  020%=      5-min Rain = 0
KNH1 132226Z 18004KT 35/09 A2984 RMK A01 T03500090  RH  020%=      5-min Rain = 0
KNH1 132227Z 17005KT 35/09 A2984 RMK A01 T03520091  RH  020%=      5-min Rain = 0
KNH1 132228Z 19007KT 35/09 A2984 RMK A01 T03510090  RH  020%=      5-min Rain = 0
KNH1 132229Z 20007KT 35/09 A2984 RMK A01 T03500088  RH  020%=      5-min Rain = 0
KNH1 132230Z 21005KT 35/09 A2984 RMK A01 T03480089  RH  021%=      5-min Rain = 0
KNH1 132231Z 20006KT 35/09 A2984 RMK A01 T03470088  RH  020%=      5-min Rain = 0
KNH1 132232Z 20005KT 35/09 A2984 RMK A01 T03470089  RH  021%=      5-min Rain = 0
KNH1 132233Z 22005KT 35/09 A2984 RMK A01 T03480089  RH  020%=      5-min Rain = 0
KNH1 132234Z 20004KT 35/09 A2984 RMK A01 T03490088  RH  020%=      5-min Rain = 0
KNH1 132235Z 18004KT 35/09 A2984 RMK A01 T03480088  RH  020%=      5-min Rain = 0
KNH1 132236Z 15004KT 35/09 A2984 RMK A01 T03470089  RH  021%=      5-min Rain = 0
KNH1 132237Z 15006KT 35/09 A2984 RMK A01 T03480087  RH  020%=      5-min Rain = 0
KNH1 132238Z 15005KT 35/09 A2984 RMK A01 T03480086  RH  020%=      5-min Rain = 0
KNH1 132239Z 14006KT 35/09 A2984 RMK A01 T03480088  RH  020%=      5-min Rain = 0
KNH1 132240Z 16005KT 35/09 A2984 RMK A01 T03480086  RH  020%=      5-min Rain = 0
KNH1 132241Z 18004KT 35/09 A2984 RMK A01 T03470086  RH  020%=      5-min Rain = 0
KNH1 132242Z 16004KT 35/09 A2984 RMK A01 T03470089  RH  021%=      5-min Rain = 0
KNH1 132243Z 16006KT 35/09 A2984 RMK A01 T03480089  RH  021%=      5-min Rain = 0
KNH1 132244Z 15006KT 35/09 A2984 RMK A01 T03480087  RH  020%=      5-min Rain = 0
KNH1 132245Z 15005KT 35/09 A2984 RMK A01 T03480087  RH  020%=      5-min Rain = 0
KNH1 132246Z 15005KT 35/09 A2984 RMK A01 T03480087  RH  020%=      5-min Rain = 0
KNH1 132247Z 18005KT 35/09 A2984 RMK A01 T03490087  RH  020%=      5-min Rain = 0
KNH1 132248Z 18008KT 35/09 A2984 RMK A01 T03490090  RH  020%=      5-min Rain = 0
KNH1 132249Z 17007KT 35/09 A2984 RMK A01 T03490087  RH  020%=      5-min Rain = 0
KNH1 132250Z 18006KT 35/09 A2984 RMK A01 T03470085  RH  020%=      5-min Rain = 0
KNH1 132251Z 16006KT 35/09 A2984 RMK A01 T03460086  RH  020%=      5-min Rain = 0
KNH1 132252Z 15003KT 35/09 A2984 RMK A01 T03450087  RH  021%=      5-min Rain = 0
KNH1 132253Z 13002KT 35/09 A2984 RMK A01 T03460086  RH  020%=      5-min Rain = 0
KNH1 132254Z 18002KT 35/09 A2983 RMK A01 T03470088  RH  020%=      5-min Rain = 0
KNH1 132255Z 18003KT 35/09 A2983 RMK A01 T03480086  RH  020%=      5-min Rain = 0
KNH1 132256Z 17003KT 35/09 A2983 RMK A01 T03480088  RH  020%=      5-min Rain = 0
KNH1 132257Z 17003KT 35/09 A2983 RMK A01 T03490089  RH  020%=      5-min Rain = 0
KNH1 132258Z 17004KT 35/09 A2983 RMK A01 T03500089  RH  020%=      5-min Rain = 0
KNH1 132259Z 18006KT 35/09 A2983 RMK A01 T03500088  RH  020%=      5-min Rain = 0
KNH1 132300Z 18004KT 35/09 A2983 RMK A01 T03490089  RH  020%=      5-min Rain = 0
KNH1 132301Z 15004KT 35/09 A2983 RMK A01 T03480088  RH  020%=      5-min Rain = 0
KNH1 132302Z 14004KT 35/09 A2983 RMK A01 T03470087  RH  020%=      5-min Rain = 0
KNH1 132303Z 16004KT 35/09 A2983 RMK A01 T03470088  RH  021%=      5-min Rain = 0
KNH1 132304Z 15004KT 35/09 A2983 RMK A01 T03470090  RH  021%=      5-min Rain = 0
KNH1 132305Z 15005KT 35/09 A2983 RMK A01 T03470088  RH  021%=      5-min Rain = 0
KNH1 132306Z 14006KT 35/09 A2983 RMK A01 T03470087  RH  020%=      5-min Rain = 0
KNH1 132307Z 14006KT 35/09 A2983 RMK A01 T03470087  RH  020%=      5-min Rain = 0
KNH1 132308Z 15005KT 35/09 A2983 RMK A01 T03470085  RH  020%=      5-min Rain = 0
KNH1 132309Z 14006KT 35/09 A2983 RMK A01 T03470086  RH  020%=      5-min Rain = 0
KNH1 132310Z 15004KT 35/09 A2983 RMK A01 T03470087  RH  020%=      5-min Rain = 0
KNH1 132311Z 16006KT 35/09 A2983 RMK A01 T03460088  RH  020%=      5-min Rain = 0
KNH1 132312Z 18007KT 35/09 A2983 RMK A01 T03460087  RH  020%=      5-min Rain = 0
KNH1 132313Z 16009KT 35/09 A2983 RMK A01 T03450086  RH  020%=      5-min Rain = 0
KNH1 132314Z 16008KT 34/09 A2983 RMK A01 T03440085  RH  020%=      5-min Rain = 0
KNH1 132315Z 16007KT 34/09 A2983 RMK A01 T03430085  RH  020%=      5-min Rain = 0
KNH1 132316Z 16006KT 34/08 A2983 RMK A01 T03430084  RH  020%=      5-min Rain = 0
KNH1 132317Z 16008KT 34/09 A2983 RMK A01 T03430085  RH  020%=      5-min Rain = 0
KNH1 132318Z 15005KT 34/09 A2983 RMK A01 T03430085  RH  021%=      5-min Rain = 0
KNH1 132319Z 15005KT 34/09 A2983 RMK A01 T03420085  RH  021%=      5-min Rain = 0
KNH1 132320Z 14004KT 34/09 A2983 RMK A01 T03430088  RH  021%=      5-min Rain = 0
KNH1 132321Z 17004KT 34/09 A2983 RMK A01 T03440088  RH  021%=      5-min Rain = 0
KNH1 132322Z 18005KT 34/09 A2983 RMK A01 T03440088  RH  021%=      5-min Rain = 0
KNH1 132323Z 14005KT 35/09 A2983 RMK A01 T03450089  RH  021%=      5-min Rain = 0
KNH1 132324Z 15005KT 35/09 A2983 RMK A01 T03450089  RH  021%=      5-min Rain = 0
KNH1 132325Z 16004KT 35/09 A2983 RMK A01 T03450090  RH  021%=      5-min Rain = 0
KNH1 132326Z 15003KT 35/09 A2983 RMK A01 T03460092  RH  021%=      5-min Rain = 0
KNH1 132327Z 16005G10KT 35/09 A2983 RMK A01 T03460091  RH  021%=      5-min Rain = 0
KNH1 132328Z 17008KT 35/09 A2983 RMK A01 T03450086  RH  020%=      5-min Rain = 0
KNH1 132329Z 16005KT 34/08 A2983 RMK A01 T03440084  RH  020%=      5-min Rain = 0
KNH1 132330Z 16005KT 34/08 A2983 RMK A01 T03430084  RH  020%=      5-min Rain = 0
KNH1 132331Z 16004KT 34/08 A2983 RMK A01 T03420083  RH  020%=      5-min Rain = 0
KNH1 132332Z 17005KT 34/09 A2983 RMK A01 T03420085  RH  021%=      5-min Rain = 0
KNH1 132333Z 17004KT 34/09 A2983 RMK A01 T03410086  RH  021%=      5-min Rain = 0
KNH1 132334Z 17005KT 34/09 A2983 RMK A01 T03410086  RH  021%=      5-min Rain = 0
KNH1 132335Z 18005KT 34/09 A2983 RMK A01 T03410089  RH  021%=      5-min Rain = 0
KNH1 132336Z 18006KT 34/09 A2983 RMK A01 T03410085  RH  021%=      5-min Rain = 0
KNH1 132337Z 17005KT 34/09 A2983 RMK A01 T03410087  RH  021%=      5-min Rain = 0
KNH1 132338Z 17005KT 34/09 A2983 RMK A01 T03400088  RH  021%=      5-min Rain = 0
KNH1 132339Z 17005KT 34/09 A2983 RMK A01 T03400088  RH  021%=      5-min Rain = 0
KNH1 132340Z 17008KT 34/09 A2983 RMK A01 T03400086  RH  021%=      5-min Rain = 0
KNH1 132341Z 17007KT 34/08 A2983 RMK A01 T03400084  RH  021%=      5-min Rain = 0
KNH1 132342Z 17006KT 34/08 A2983 RMK A01 T03390083  RH  021%=      5-min Rain = 0
KNH1 132343Z 17004KT 34/08 A2983 RMK A01 T03390084  RH  021%=      5-min Rain = 0
KNH1 132344Z 17004KT 34/09 A2983 RMK A01 T03390085  RH  021%=      5-min Rain = 0
KNH1 132345Z 16003KT 34/09 A2983 RMK A01 T03390088  RH  021%=      5-min Rain = 0
KNH1 132346Z 16005KT 34/09 A2983 RMK A01 T03400090  RH  022%=      5-min Rain = 0
KNH1 132347Z 16005KT 34/09 A2983 RMK A01 T03400087  RH  021%=      5-min Rain = 0
KNH1 132348Z 16004KT 34/09 A2983 RMK A01 T03390086  RH  021%=      5-min Rain = 0
KNH1 132349Z 17006KT 34/09 A2983 RMK A01 T03390088  RH  021%=      5-min Rain = 0
KNH1 132350Z 16004KT 34/09 A2983 RMK A01 T03390087  RH  021%=      5-min Rain = 0
KNH1 132351Z 16005KT 34/09 A2983 RMK A01 T03390087  RH  021%=      5-min Rain = 0
KNH1 132352Z 16005KT 34/09 A2983 RMK A01 T03390087  RH  021%=      5-min Rain = 0
KNH1 132353Z 15004KT 34/09 A2983 RMK A01 T03380087  RH  021%=      5-min Rain = 0
KNH1 132354Z 16003KT 34/09 A2983 RMK A01 T03370090  RH  022%=      5-min Rain = 0
KNH1 132355Z 16004KT 34/09 A2983 RMK A01 T03380089  RH  022%=      5-min Rain = 0
KNH1 132356Z 15003KT 34/09 A2983 RMK A01 T03380088  RH  022%=      5-min Rain = 0
KNH1 132357Z 15004KT 34/09 A2983 RMK A01 T03370090  RH  022%=      5-min Rain = 0
KNH1 132358Z 16004KT 34/09 A2983 RMK A01 T03370090  RH  022%=      5-min Rain = 0
KNH1 132359Z 15006KT 34/09 A2983 RMK A01 T03370088  RH  022%=      5-min Rain = 0
KNH1 140000Z 16006KT 34/09 A2983 RMK A01 T03360085  RH  021%=      5-min Rain = 0
KNH1 140001Z 16006KT 34/08 A2983 RMK A01 T03360083  RH  021%=      5-min Rain = 0
KNH1 140002Z 16006KT 34/08 A2983 RMK A01 T03350082  RH  021%=      5-min Rain = 0
KNH1 140003Z 16006KT 34/08 A2983 RMK A01 T03350084  RH  021%=      5-min Rain = 0
KNH1 140004Z 16005KT 34/09 A2983 RMK A01 T03350086  RH  022%=      5-min Rain = 0
KNH1 140005Z 16005KT 33/09 A2983 RMK A01 T03340085  RH  021%=      5-min Rain = 0
KNH1 140006Z 16004KT 33/08 A2983 RMK A01 T03340084  RH  022%=      5-min Rain = 0
KNH1 140007Z 15004KT 33/09 A2983 RMK A01 T03330085  RH  022%=      5-min Rain = 0
KNH1 140008Z 15004KT 33/09 A2983 RMK A01 T03330087  RH  022%=      5-min Rain = 0
KNH1 140009Z 15003KT 33/09 A2983 RMK A01 T03320089  RH  022%=      5-min Rain = 0
KNH1 140010Z 15003KT 33/09 A2983 RMK A01 T03320093  RH  023%=      5-min Rain = 0
KNH1 140011Z 15003KT 33/10 A2983 RMK A01 T03310096  RH  024%=      5-min Rain = 0
KNH1 140012Z 14003KT 33/10 A2983 RMK A01 T03310098  RH  024%=      5-min Rain = 0
KNH1 140013Z 14003KT 33/10 A2983 RMK A01 T03300101  RH  025%=      5-min Rain = 0
KNH1 140014Z 15003KT 33/10 A2983 RMK A01 T03290103  RH  025%=      5-min Rain = 0
KNH1 140015Z 15002KT 33/10 A2983 RMK A01 T03290103  RH  025%=      5-min Rain = 0
KNH1 140016Z 15003KT 33/10 A2984 RMK A01 T03280103  RH  025%=      5-min Rain = 0
KNH1 140017Z 15003KT 33/11 A2984 RMK A01 T03270106  RH  026%=      5-min Rain = 0
KNH1 140018Z 15002KT 33/11 A2984 RMK A01 T03260107  RH  026%=      5-min Rain = 0
KNH1 140019Z 16003KT 33/11 A2984 RMK A01 T03250108  RH  026%=      5-min Rain = 0
KNH1 140020Z 17003KT 33/11 A2984 RMK A01 T03250109  RH  027%=      5-min Rain = 0
KNH1 140021Z 16003KT 32/11 A2984 RMK A01 T03230106  RH  026%=      5-min Rain = 0
KNH1 140022Z 17005KT 32/10 A2984 RMK A01 T03220100  RH  026%=      5-min Rain = 0
KNH1 140023Z 17004KT 32/10 A2984 RMK A01 T03220099  RH  025%=      5-min Rain = 0
KNH1 140024Z 17004KT 32/10 A2984 RMK A01 T03220098  RH  025%=      5-min Rain = 0
KNH1 140025Z 16004KT 32/10 A2984 RMK A01 T03210099  RH  025%=      5-min Rain = 0
KNH1 140026Z 16003KT 32/10 A2984 RMK A01 T03210101  RH  026%=      5-min Rain = 0
KNH1 140027Z 16003KT 32/10 A2984 RMK A01 T03210103  RH  026%=      5-min Rain = 0
KNH1 140028Z 15003KT 32/10 A2984 RMK A01 T03200102  RH  026%=      5-min Rain = 0
KNH1 140029Z 15003KT 32/10 A2984 RMK A01 T03200103  RH  026%=      5-min Rain = 0
KNH1 140030Z 15003KT 32/10 A2984 RMK A01 T03190104  RH  027%=      5-min Rain = 0
KNH1 140031Z 15003KT 32/11 A2984 RMK A01 T03180107  RH  027%=      5-min Rain = 0
KNH1 140032Z 15003KT 32/11 A2984 RMK A01 T03170109  RH  028%=      5-min Rain = 0
KNH1 140033Z 15003KT 32/11 A2984 RMK A01 T03160109  RH  028%=      5-min Rain = 0
KNH1 140034Z 14002KT 31/12 A2984 RMK A01 T03130115  RH  030%=      5-min Rain = 0
KNH1 140035Z 15003KT 31/12 A2984 RMK A01 T03100118  RH  031%=      5-min Rain = 0
KNH1 140036Z 14003KT 31/12 A2984 RMK A01 T03070118  RH  031%=      5-min Rain = 0
KNH1 140037Z 15003KT 31/12 A2984 RMK A01 T03060119  RH  032%=      5-min Rain = 0
KNH1 140038Z 15003KT 30/12 A2984 RMK A01 T03040118  RH  032%=      5-min Rain = 0
KNH1 140039Z 15003KT 30/12 A2984 RMK A01 T03020118  RH  032%=      5-min Rain = 0
KNH1 140040Z 15004KT 30/12 A2984 RMK A01 T03010118  RH  032%=      5-min Rain = 0
KNH1 140041Z 16003KT 30/12 A2984 RMK A01 T03000115  RH  032%=      5-min Rain = 0
KNH1 140042Z 15003KT 30/12 A2984 RMK A01 T02990117  RH  032%=      5-min Rain = 0
KNH1 140043Z 15003KT 30/12 A2984 RMK A01 T02980116  RH  033%=      5-min Rain = 0
KNH1 140044Z 14003KT 30/12 A2984 RMK A01 T02970118  RH  033%=      5-min Rain = 0
KNH1 140045Z 15003KT 30/12 A2984 RMK A01 T02950119  RH  034%=      5-min Rain = 0
KNH1 140046Z 14003KT 29/12 A2984 RMK A01 T02940120  RH  034%=      5-min Rain = 0
KNH1 140047Z 13003KT 29/12 A2984 RMK A01 T02930120  RH  034%=      5-min Rain = 0
KNH1 140048Z 12003KT 29/12 A2984 RMK A01 T02920122  RH  035%=      5-min Rain = 0
KNH1 140049Z 12003KT 29/12 A2984 RMK A01 T02910123  RH  035%=      5-min Rain = 0
KNH1 140050Z 13003KT 29/12 A2984 RMK A01 T02900121  RH  035%=      5-min Rain = 0
KNH1 140051Z 14003KT 29/12 A2984 RMK A01 T02890120  RH  035%=      5-min Rain = 0
KNH1 140052Z 13003KT 29/12 A2984 RMK A01 T02880120  RH  035%=      5-min Rain = 0
KNH1 140053Z 14003KT 29/12 A2984 RMK A01 T02870120  RH  035%=      5-min Rain = 0
KNH1 140054Z 14003KT 29/12 A2984 RMK A01 T02870119  RH  036%=      5-min Rain = 0
KNH1 140055Z 14003KT 29/12 A2984 RMK A01 T02860118  RH  035%=      5-min Rain = 0
KNH1 140056Z 14003KT 29/12 A2984 RMK A01 T02850117  RH  035%=      5-min Rain = 0
KNH1 140057Z 14003KT 29/12 A2984 RMK A01 T02850116  RH  035%=      5-min Rain = 0
KNH1 140058Z 14004KT 28/12 A2984 RMK A01 T02840115  RH  035%=      5-min Rain = 0
KNH1 140059Z 14004KT 28/12 A2984 RMK A01 T02840115  RH  035%=      5-min Rain = 0
KNH1 140100Z 15003KT 28/11 A2984 RMK A01 T02840114  RH  035%=      5-min Rain = 0
KNH1 140101Z 15003KT 28/11 A2984 RMK A01 T02830113  RH  035%=      5-min Rain = 0
KNH1 140102Z 14003KT 28/11 A2984 RMK A01 T02830113  RH  035%=      5-min Rain = 0
KNH1 140103Z 15004KT 28/11 A2984 RMK A01 T02820113  RH  035%=      5-min Rain = 0
KNH1 140104Z 15004KT 28/11 A2984 RMK A01 T02830113  RH  035%=      5-min Rain = 0
KNH1 140105Z 15004KT 28/11 A2984 RMK A01 T02820112  RH  035%=      5-min Rain = 0
KNH1 140106Z 14004KT 28/11 A2984 RMK A01 T02830113  RH  035%=      5-min Rain = 0
KNH1 140107Z 15004KT 28/12 A2984 RMK A01 T02820115  RH  035%=      5-min Rain = 0
KNH1 140108Z 15004KT 28/11 A2984 RMK A01 T02820112  RH  035%=      5-min Rain = 0
KNH1 140109Z 15004KT 28/11 A2984 RMK A01 T02820111  RH  035%=      5-min Rain = 0
KNH1 140110Z 15004KT 28/11 A2984 RMK A01 T02810109  RH  034%=      5-min Rain = 0
KNH1 140111Z 15004KT 28/11 A2984 RMK A01 T02810108  RH  034%=      5-min Rain = 0
KNH1 140112Z 15004KT 28/11 A2984 RMK A01 T02810107  RH  034%=      5-min Rain = 0
KNH1 140113Z 14004KT 28/11 A2984 RMK A01 T02810108  RH  034%=      5-min Rain = 0
KNH1 140114Z 14004KT 28/11 A2984 RMK A01 T02810106  RH  033%=      5-min Rain = 0
KNH1 140115Z 15004KT 28/11 A2984 RMK A01 T02810109  RH  034%=      5-min Rain = 0
KNH1 140116Z 14004KT 28/11 A2984 RMK A01 T02810108  RH  034%=      5-min Rain = 0
KNH1 140117Z 14004KT 28/11 A2984 RMK A01 T02800107  RH  034%=      5-min Rain = 0
KNH1 140118Z 15004KT 28/11 A2984 RMK A01 T02800108  RH  034%=      5-min Rain = 0
KNH1 140119Z 14004KT 28/11 A2984 RMK A01 T02790107  RH  034%=      5-min Rain = 0
KNH1 140120Z 14004KT 28/11 A2984 RMK A01 T02790107  RH  034%=      5-min Rain = 0
KNH1 140121Z 13004KT 28/11 A2984 RMK A01 T02790107  RH  034%=      5-min Rain = 0
KNH1 140122Z 14004KT 28/11 A2984 RMK A01 T02790107  RH  034%=      5-min Rain = 0
KNH1 140123Z 14004KT 28/11 A2984 RMK A01 T02780106  RH  034%=      5-min Rain = 0
KNH1 140124Z 14004KT 28/11 A2984 RMK A01 T02780105  RH  034%=      5-min Rain = 0
KNH1 140125Z 14004KT 28/10 A2984 RMK A01 T02780104  RH  034%=      5-min Rain = 0
KNH1 140126Z 14004KT 28/10 A2984 RMK A01 T02770104  RH  034%=      5-min Rain = 0
KNH1 140127Z 14004KT 28/11 A2984 RMK A01 T02770105  RH  034%=      5-min Rain = 0
KNH1 140128Z 14004KT 28/11 A2984 RMK A01 T02770105  RH  034%=      5-min Rain = 0
KNH1 140129Z 14004KT 28/10 A2984 RMK A01 T02760103  RH  034%=      5-min Rain = 0
KNH1 140130Z 14004KT 28/10 A2984 RMK A01 T02760103  RH  034%=      5-min Rain = 0
KNH1 140131Z 14004KT 28/10 A2984 RMK A01 T02760104  RH  034%=      5-min Rain = 0
KNH1 140132Z 14004KT 28/10 A2984 RMK A01 T02760104  RH  034%=      5-min Rain = 0
KNH1 140133Z 14004KT 28/10 A2984 RMK A01 T02760104  RH  034%=      5-min Rain = 0
KNH1 140134Z 14004KT 28/10 A2984 RMK A01 T02760104  RH  034%=      5-min Rain = 0
KNH1 140135Z 14004KT 28/11 A2984 RMK A01 T02750105  RH  034%=      5-min Rain = 0
KNH1 140136Z 13004KT 28/11 A2984 RMK A01 T02750106  RH  035%=      5-min Rain = 0
KNH1 140137Z 13004KT 27/11 A2985 RMK A01 T02740107  RH  035%=      5-min Rain = 0
KNH1 140138Z 14004KT 27/11 A2985 RMK A01 T02730109  RH  036%=      5-min Rain = 0
KNH1 140139Z 14004KT 27/11 A2985 RMK A01 T02720109  RH  036%=      5-min Rain = 0
KNH1 140140Z 13004KT 27/11 A2985 RMK A01 T02710110  RH  037%=      5-min Rain = 0
KNH1 140141Z 13004KT 27/11 A2985 RMK A01 T02700111  RH  037%=      5-min Rain = 0
KNH1 140142Z 13005KT 27/11 A2985 RMK A01 T02690112  RH  037%=      5-min Rain = 0
KNH1 140143Z 13005KT 27/11 A2985 RMK A01 T02680112  RH  038%=      5-min Rain = 0
KNH1 140144Z 13005KT 27/11 A2985 RMK A01 T02670111  RH  038%=      5-min Rain = 0
KNH1 140145Z 13004KT 27/11 A2985 RMK A01 T02660111  RH  038%=      5-min Rain = 0
KNH1 140146Z 13005KT 27/11 A2985 RMK A01 T02660109  RH  038%=      5-min Rain = 0
KNH1 140147Z 12005KT 27/11 A2985 RMK A01 T02660108  RH  037%=      5-min Rain = 0
KNH1 140148Z 12005KT 27/11 A2985 RMK A01 T02650109  RH  038%=      5-min Rain = 0
KNH1 140149Z 13005KT 27/11 A2985 RMK A01 T02650110  RH  038%=      5-min Rain = 0
KNH1 140150Z 12005KT 26/11 A2985 RMK A01 T02640109  RH  038%=      5-min Rain = 0
KNH1 140151Z 13005KT 26/11 A2985 RMK A01 T02640110  RH  038%=      5-min Rain = 0
KNH1 140152Z 14005KT 26/11 A2985 RMK A01 T02640110  RH  038%=      5-min Rain = 0
KNH1 140153Z 13005KT 26/11 A2985 RMK A01 T02640110  RH  038%=      5-min Rain = 0
KNH1 140154Z 12005KT 26/11 A2985 RMK A01 T02640111  RH  038%=      5-min Rain = 0
KNH1 140155Z 10005KT 26/11 A2985 RMK A01 T02630113  RH  039%=      5-min Rain = 0
KNH1 140156Z 10004KT 26/12 A2985 RMK A01 T02630117  RH  040%=      5-min Rain = 0
KNH1 140157Z 11006KT 26/12 A2985 RMK A01 T02610117  RH  041%=      5-min Rain = 0
KNH1 140158Z 12005KT 26/11 A2985 RMK A01 T02590114  RH  040%=      5-min Rain = 0
KNH1 140159Z 11004KT 26/11 A2985 RMK A01 T02600113  RH  040%=      5-min Rain = 0
KNH1 140200Z 10004KT 26/12 A2985 RMK A01 T02600116  RH  041%=      5-min Rain = 0
KNH1 140201Z 10004KT 26/12 A2985 RMK A01 T02580120  RH  042%=      5-min Rain = 0
KNH1 140202Z 10004KT 26/12 A2985 RMK A01 T02550121  RH  043%=      5-min Rain = 0
KNH1 140203Z 11004KT 25/12 A2985 RMK A01 T02530121  RH  044%=      5-min Rain = 0
KNH1 140204Z 11005KT 25/12 A2985 RMK A01 T02510120  RH  044%=      5-min Rain = 0
KNH1 140205Z 11005KT 25/12 A2985 RMK A01 T02500120  RH  044%=      5-min Rain = 0
KNH1 140206Z 11005KT 25/12 A2985 RMK A01 T02490120  RH  045%=      5-min Rain = 0
KNH1 140207Z 11005KT 25/12 A2985 RMK A01 T02480121  RH  045%=      5-min Rain = 0
KNH1 140208Z 11007KT 25/12 A2986 RMK A01 T02480121  RH  045%=      5-min Rain = 0
KNH1 140209Z 11007KT 25/12 A2986 RMK A01 T02470121  RH  045%=      5-min Rain = 0
KNH1 140210Z 11007KT 25/12 A2986 RMK A01 T02470120  RH  045%=      5-min Rain = 0
KNH1 140211Z 11008KT 25/12 A2986 RMK A01 T02460120  RH  045%=      5-min Rain = 0
KNH1 140212Z 11008KT 25/12 A2986 RMK A01 T02460120  RH  045%=      5-min Rain = 0
KNH1 140213Z 12007KT 25/12 A2986 RMK A01 T02460119  RH  045%=      5-min Rain = 0
KNH1 140214Z 11006KT 25/12 A2986 RMK A01 T02460118  RH  045%=      5-min Rain = 0
KNH1 140215Z 11006KT 25/12 A2986 RMK A01 T02460117  RH  044%=      5-min Rain = 0
KNH1 140216Z 12006KT 25/12 A2986 RMK A01 T02460117  RH  044%=      5-min Rain = 0
KNH1 140217Z 12007KT 25/12 A2986 RMK A01 T02460117  RH  044%=      5-min Rain = 0
KNH1 140218Z 12006KT 25/12 A2986 RMK A01 T02460117  RH  044%=      5-min Rain = 0
KNH1 140219Z 12006KT 25/12 A2986 RMK A01 T02460117  RH  044%=      5-min Rain = 0
KNH1 140220Z 12006KT 25/12 A2986 RMK A01 T02460118  RH  045%=      5-min Rain = 0
KNH1 140221Z 13005KT 25/12 A2986 RMK A01 T02460118  RH  045%=      5-min Rain = 0
KNH1 140222Z 12006KT 25/12 A2986 RMK A01 T02460119  RH  045%=      5-min Rain = 0
KNH1 140223Z 12006KT 25/12 A2986 RMK A01 T02450119  RH  045%=      5-min Rain = 0
KNH1 140224Z 13005KT 25/12 A2986 RMK A01 T02450118  RH  045%=      5-min Rain = 0
KNH1 140225Z 13006KT 24/12 A2986 RMK A01 T02440118  RH  045%=      5-min Rain = 0
KNH1 140226Z 13006KT 24/12 A2986 RMK A01 T02440117  RH  045%=      5-min Rain = 0
KNH1 140227Z 13006KT 24/12 A2986 RMK A01 T02440117  RH  045%=      5-min Rain = 0
KNH1 140228Z 12005KT 24/12 A2986 RMK A01 T02440116  RH  045%=      5-min Rain = 0
KNH1 140229Z 13006KT 24/12 A2986 RMK A01 T02440116  RH  044%=      5-min Rain = 0
KNH1 140230Z 13006KT 24/12 A2986 RMK A01 T02440115  RH  044%=      5-min Rain = 0
KNH1 140231Z 13006KT 24/11 A2986 RMK A01 T02440114  RH  044%=      5-min Rain = 0
KNH1 140232Z 13006KT 24/11 A2987 RMK A01 T02440113  RH  044%=      5-min Rain = 0
KNH1 140233Z 13005KT 24/11 A2987 RMK A01 T02440113  RH  044%=      5-min Rain = 0
KNH1 140234Z 13006KT 24/11 A2987 RMK A01 T02440112  RH  043%=      5-min Rain = 0
KNH1 140235Z 14005KT 25/11 A2987 RMK A01 T02450112  RH  043%=      5-min Rain = 0
KNH1 140236Z 11005KT 25/11 A2987 RMK A01 T02450112  RH  043%=      5-min Rain = 0
KNH1 140237Z 12005KT 25/11 A2987 RMK A01 T02460112  RH  043%=      5-min Rain = 0
KNH1 140238Z 11007KT 25/11 A2987 RMK A01 T02460112  RH  043%=      5-min Rain = 0
KNH1 140239Z 11006KT 25/11 A2987 RMK A01 T02460112  RH  043%=      5-min Rain = 0
KNH1 140240Z 12006KT 25/11 A2987 RMK A01 T02460113  RH  043%=      5-min Rain = 0
KNH1 140241Z 12005KT 25/11 A2987 RMK A01 T02460114  RH  043%=      5-min Rain = 0
KNH1 140242Z 12005KT 25/12 A2987 RMK A01 T02460115  RH  044%=      5-min Rain = 0
KNH1 140243Z 12005KT 25/12 A2987 RMK A01 T02450116  RH  044%=      5-min Rain = 0
KNH1 140244Z 12005KT 24/12 A2987 RMK A01 T02440115  RH  045%=      5-min Rain = 0
KNH1 140245Z 12005KT 24/12 A2987 RMK A01 T02430116  RH  045%=      5-min Rain = 0
KNH1 140246Z 13005KT 24/12 A2987 RMK A01 T02410116  RH  045%=      5-min Rain = 0
KNH1 140247Z 12004KT 24/12 A2987 RMK A01 T02400116  RH  046%=      5-min Rain = 0
KNH1 140248Z 13005KT 24/12 A2987 RMK A01 T02400116  RH  046%=      5-min Rain = 0
KNH1 140249Z 12006KT 24/12 A2987 RMK A01 T02390116  RH  046%=      5-min Rain = 0
KNH1 140250Z 12005KT 24/12 A2987 RMK A01 T02380115  RH  046%=      5-min Rain = 0
KNH1 140251Z 13005KT 24/12 A2987 RMK A01 T02390115  RH  046%=      5-min Rain = 0
KNH1 140252Z 13005KT 24/12 A2987 RMK A01 T02380115  RH  046%=      5-min Rain = 0
KNH1 140253Z 13005KT 24/11 A2987 RMK A01 T02380114  RH  046%=      5-min Rain = 0
KNH1 140254Z 13005KT 24/11 A2987 RMK A01 T02380114  RH  046%=      5-min Rain = 0
KNH1 140255Z 13005KT 24/11 A2987 RMK A01 T02380114  RH  046%=      5-min Rain = 0
KNH1 140256Z 13005KT 24/12 A2987 RMK A01 T02370115  RH  046%=      5-min Rain = 0
KNH1 140257Z 13005KT 24/12 A2987 RMK A01 T02370115  RH  046%=      5-min Rain = 0
KNH1 140258Z 12005KT 24/12 A2987 RMK A01 T02360115  RH  046%=      5-min Rain = 0
KNH1 140259Z 13005KT 24/12 A2987 RMK A01 T02360115  RH  047%=      5-min Rain = 0
KNH1 140300Z 13005KT 24/12 A2987 RMK A01 T02350115  RH  047%=      5-min Rain = 0
KNH1 140301Z 13005KT 24/12 A2987 RMK A01 T02350115  RH  047%=      5-min Rain = 0
KNH1 140302Z 13005KT 23/12 A2987 RMK A01 T02340115  RH  047%=      5-min Rain = 0
KNH1 140303Z 12005KT 23/12 A2987 RMK A01 T02340115  RH  047%=      5-min Rain = 0
KNH1 140304Z 13005KT 23/12 A2987 RMK A01 T02340115  RH  047%=      5-min Rain = 0
KNH1 140305Z 12005KT 23/12 A2987 RMK A01 T02330115  RH  047%=      5-min Rain = 0
KNH1 140306Z 12006KT 23/12 A2987 RMK A01 T02330115  RH  047%=      5-min Rain = 0
KNH1 140307Z 13005KT 23/11 A2987 RMK A01 T02320114  RH  047%=      5-min Rain = 0
KNH1 140308Z 12005KT 23/11 A2988 RMK A01 T02320114  RH  047%=      5-min Rain = 0
KNH1 140309Z 12005KT 23/11 A2988 RMK A01 T02320113  RH  047%=      5-min Rain = 0
KNH1 140310Z 12006KT 23/11 A2988 RMK A01 T02320113  RH  047%=      5-min Rain = 0
KNH1 140311Z 11006KT 23/11 A2988 RMK A01 T02330113  RH  047%=      5-min Rain = 0
KNH1 140312Z 12006KT 23/11 A2988 RMK A01 T02340112  RH  046%=      5-min Rain = 0
KNH1 140313Z 12006KT 23/11 A2988 RMK A01 T02340112  RH  046%=      5-min Rain = 0
KNH1 140314Z 11006KT 23/11 A2988 RMK A01 T02340113  RH  047%=      5-min Rain = 0
KNH1 140315Z 11005KT 23/11 A2988 RMK A01 T02340113  RH  047%=      5-min Rain = 0
KNH1 140316Z 11006KT 23/11 A2988 RMK A01 T02330114  RH  047%=      5-min Rain = 0
KNH1 140317Z 11004KT 23/11 A2988 RMK A01 T02320114  RH  048%=      5-min Rain = 0
KNH1 140318Z 11005KT 23/12 A2988 RMK A01 T02300115  RH  048%=      5-min Rain = 0
KNH1 140319Z 11004KT 23/12 A2988 RMK A01 T02290115  RH  049%=      5-min Rain = 0
KNH1 140320Z 11005KT 23/12 A2988 RMK A01 T02270115  RH  049%=      5-min Rain = 0
KNH1 140321Z 12006KT 23/11 A2988 RMK A01 T02260114  RH  049%=      5-min Rain = 0
KNH1 140322Z 12005KT 23/11 A2988 RMK A01 T02260113  RH  049%=      5-min Rain = 0
KNH1 140323Z 12006KT 23/11 A2988 RMK A01 T02270113  RH  049%=      5-min Rain = 0
KNH1 140324Z 12006KT 23/11 A2988 RMK A01 T02280113  RH  048%=      5-min Rain = 0
KNH1 140325Z 12006KT 23/11 A2988 RMK A01 T02280114  RH  048%=      5-min Rain = 0
KNH1 140326Z 12006KT 23/11 A2988 RMK A01 T02280113  RH  048%=      5-min Rain = 0
KNH1 140327Z 12006KT 23/11 A2988 RMK A01 T02280113  RH  048%=      5-min Rain = 0
KNH1 140328Z 12006KT 23/11 A2988 RMK A01 T02280113  RH  048%=      5-min Rain = 0
KNH1 140329Z 11006KT 23/11 A2988 RMK A01 T02290113  RH  048%=      5-min Rain = 0
KNH1 140330Z 11005KT 23/11 A2988 RMK A01 T02280113  RH  048%=      5-min Rain = 0
KNH1 140331Z 11004KT 23/11 A2988 RMK A01 T02270114  RH  049%=      5-min Rain = 0
KNH1 140332Z 11005KT 23/11 A2988 RMK A01 T02260114  RH  049%=      5-min Rain = 0
KNH1 140333Z 11005KT 23/11 A2988 RMK A01 T02250114  RH  049%=      5-min Rain = 0
KNH1 140334Z 11005KT 22/11 A2988 RMK A01 T02240114  RH  050%=      5-min Rain = 0
KNH1 140335Z 10006KT 22/11 A2988 RMK A01 T02220114  RH  050%=      5-min Rain = 0
KNH1 140336Z 10006KT 22/11 A2988 RMK A01 T02210112  RH  050%=      5-min Rain = 0
KNH1 140337Z 09005KT 22/11 A2988 RMK A01 T02200112  RH  050%=      5-min Rain = 0
KNH1 140338Z 09007KT 22/11 A2988 RMK A01 T02200112  RH  050%=      5-min Rain = 0
KNH1 140339Z 09008KT 22/11 A2988 RMK A01 T02190112  RH  050%=      5-min Rain = 0
KNH1 140340Z 10006KT 22/11 A2988 RMK A01 T02190111  RH  050%=      5-min Rain = 0
KNH1 140341Z 09006KT 22/11 A2988 RMK A01 T02200111  RH  050%=      5-min Rain = 0
KNH1 140342Z 10006KT 22/11 A2988 RMK A01 T02200111  RH  050%=      5-min Rain = 0
KNH1 140343Z 10005KT 22/11 A2988 RMK A01 T02200111  RH  050%=      5-min Rain = 0
KNH1 140344Z 10006KT 22/11 A2988 RMK A01 T02190110  RH  050%=      5-min Rain = 0
KNH1 140345Z 10006KT 22/11 A2988 RMK A01 T02190110  RH  050%=      5-min Rain = 0
KNH1 140346Z 10006KT 22/11 A2988 RMK A01 T02190110  RH  050%=      5-min Rain = 0
KNH1 140347Z 09006KT 22/11 A2989 RMK A01 T02190110  RH  050%=      5-min Rain = 0
KNH1 140348Z 10005KT 22/11 A2989 RMK A01 T02190110  RH  050%=      5-min Rain = 0
KNH1 140349Z 10006KT 22/11 A2989 RMK A01 T02200110  RH  050%=      5-min Rain = 0
KNH1 140350Z 10006KT 22/11 A2988 RMK A01 T02190109  RH  050%=      5-min Rain = 0
KNH1 140351Z 10006KT 22/11 A2989 RMK A01 T02200109  RH  050%=      5-min Rain = 0
KNH1 140352Z 10006KT 22/11 A2989 RMK A01 T02190109  RH  050%=      5-min Rain = 0
KNH1 140353Z 11005KT 22/11 A2989 RMK A01 T02190109  RH  049%=      5-min Rain = 0
KNH1 140354Z 11004KT 22/11 A2989 RMK A01 T02190108  RH  049%=      5-min Rain = 0
KNH1 140355Z 10006KT 22/11 A2989 RMK A01 T02190108  RH  049%=      5-min Rain = 0
KNH1 140356Z 10005KT 22/11 A2989 RMK A01 T02200108  RH  049%=      5-min Rain = 0
KNH1 140357Z 11006KT 22/11 A2989 RMK A01 T02200108  RH  049%=      5-min Rain = 0
KNH1 140358Z 10006KT 22/11 A2989 RMK A01 T02190108  RH  049%=      5-min Rain = 0
KNH1 140359Z 10006KT 22/11 A2989 RMK A01 T02200109  RH  049%=      5-min Rain = 0
KNH1 140400Z 11005KT 22/11 A2989 RMK A01 T02190108  RH  049%=      5-min Rain = 0
KNH1 140401Z 10004KT 22/11 A2989 RMK A01 T02190108  RH  049%=      5-min Rain = 0
KNH1 140402Z 11004KT 22/11 A2989 RMK A01 T02180108  RH  050%=      5-min Rain = 0
KNH1 140403Z 11005KT 22/11 A2989 RMK A01 T02180108  RH  050%=      5-min Rain = 0
KNH1 140404Z 11006KT 22/11 A2989 RMK A01 T02170107  RH  049%=      5-min Rain = 0
KNH1 140405Z 11005KT 22/11 A2989 RMK A01 T02180106  RH  049%=      5-min Rain = 0
KNH1 140406Z 11006KT 22/11 A2989 RMK A01 T02180107  RH  049%=      5-min Rain = 0
KNH1 140407Z 10006KT 22/11 A2989 RMK A01 T02190106  RH  049%=      5-min Rain = 0
KNH1 140408Z 11006KT 22/11 A2989 RMK A01 T02200106  RH  048%=      5-min Rain = 0
KNH1 140409Z 11006KT 22/11 A2989 RMK A01 T02200106  RH  048%=      5-min Rain = 0
KNH1 140410Z 11007KT 22/11 A2989 RMK A01 T02200106  RH  048%=      5-min Rain = 0
KNH1 140411Z 10007KT 22/11 A2989 RMK A01 T02210105  RH  048%=      5-min Rain = 0
KNH1 140412Z 11006KT 22/11 A2988 RMK A01 T02220106  RH  048%=      5-min Rain = 0
KNH1 140413Z 11007KT 22/11 A2988 RMK A01 T02230107  RH  048%=      5-min Rain = 0
KNH1 140414Z 11006KT 22/11 A2988 RMK A01 T02230107  RH  048%=      5-min Rain = 0
KNH1 140415Z 11005KT 22/11 A2988 RMK A01 T02230107  RH  048%=      5-min Rain = 0
KNH1 140416Z 11006KT 22/11 A2988 RMK A01 T02220107  RH  048%=      5-min Rain = 0
KNH1 140417Z 11004KT 22/11 A2988 RMK A01 T02210108  RH  048%=      5-min Rain = 0
KNH1 140418Z 10005KT 22/11 A2988 RMK A01 T02200107  RH  049%=      5-min Rain = 0
KNH1 140419Z 11004KT 22/11 A2988 RMK A01 T02190107  RH  049%=      5-min Rain = 0
KNH1 140420Z 11006KT 22/11 A2988 RMK A01 T02180107  RH  049%=      5-min Rain = 0
KNH1 140421Z 11005KT 22/11 A2988 RMK A01 T02180107  RH  049%=      5-min Rain = 0
KNH1 140422Z 11006KT 22/11 A2988 RMK A01 T02180107  RH  049%=      5-min Rain = 0
KNH1 140423Z 11006KT 22/11 A2988 RMK A01 T02180108  RH  049%=      5-min Rain = 0
KNH1 140424Z 11007KT 22/11 A2988 RMK A01 T02180107  RH  049%=      5-min Rain = 0
KNH1 140425Z 11007KT 22/11 A2988 RMK A01 T02170107  RH  049%=      5-min Rain = 0
KNH1 140426Z 11007KT 22/11 A2988 RMK A01 T02180108  RH  050%=      5-min Rain = 0
KNH1 140427Z 11007KT 22/11 A2988 RMK A01 T02180108  RH  050%=      5-min Rain = 0
KNH1 140428Z 11007KT 22/11 A2988 RMK A01 T02170108  RH  050%=      5-min Rain = 0
KNH1 140429Z 11007KT 22/11 A2988 RMK A01 T02170107  RH  050%=      5-min Rain = 0
KNH1 140430Z 11007KT 22/11 A2988 RMK A01 T02170107  RH  050%=      5-min Rain = 0
KNH1 140431Z 11007KT 22/11 A2988 RMK A01 T02170107  RH  050%=      5-min Rain = 0
KNH1 140432Z 11006KT 22/11 A2988 RMK A01 T02170107  RH  050%=      5-min Rain = 0
KNH1 140433Z 11005KT 22/11 A2988 RMK A01 T02170107  RH  050%=      5-min Rain = 0
KNH1 140434Z 11005KT 22/11 A2988 RMK A01 T02160106  RH  050%=      5-min Rain = 0
KNH1 140435Z 11004KT 22/11 A2988 RMK A01 T02150106  RH  050%=      5-min Rain = 0
KNH1 140436Z 11005KT 21/11 A2988 RMK A01 T02140106  RH  050%=      5-min Rain = 0
KNH1 140437Z 10005KT 21/11 A2988 RMK A01 T02140106  RH  050%=      5-min Rain = 0
KNH1 140438Z 11005KT 21/11 A2988 RMK A01 T02130107  RH  051%=      5-min Rain = 0
KNH1 140439Z 10005KT 21/11 A2988 RMK A01 T02130108  RH  051%=      5-min Rain = 0
KNH1 140440Z 11005KT 21/11 A2988 RMK A01 T02130108  RH  051%=      5-min Rain = 0
KNH1 140441Z 10005KT 21/11 A2988 RMK A01 T02130108  RH  051%=      5-min Rain = 0
KNH1 140442Z 11005KT 21/11 A2988 RMK A01 T02120108  RH  051%=      5-min Rain = 0
KNH1 140443Z 10005KT 21/11 A2988 RMK A01 T02120108  RH  052%=      5-min Rain = 0
KNH1 140444Z 11005KT 21/11 A2988 RMK A01 T02110108  RH  052%=      5-min Rain = 0
KNH1 140445Z 11004KT 21/11 A2988 RMK A01 T02110108  RH  052%=      5-min Rain = 0
KNH1 140446Z 10005KT 21/11 A2988 RMK A01 T02120108  RH  052%=      5-min Rain = 0
KNH1 140447Z 11005KT 21/11 A2988 RMK A01 T02110108  RH  052%=      5-min Rain = 0
KNH1 140448Z 11006KT 21/11 A2988 RMK A01 T02110108  RH  052%=      5-min Rain = 0
KNH1 140449Z 11007KT 21/11 A2988 RMK A01 T02110108  RH  052%=      5-min Rain = 0
KNH1 140450Z 12006KT 21/11 A2988 RMK A01 T02110108  RH  052%=      5-min Rain = 0
KNH1 140451Z 12006KT 21/11 A2988 RMK A01 T02120108  RH  051%=      5-min Rain = 0
KNH1 140452Z 11006KT 21/11 A2988 RMK A01 T02120108  RH  051%=      5-min Rain = 0
KNH1 140453Z 12005KT 21/11 A2988 RMK A01 T02120108  RH  051%=      5-min Rain = 0
KNH1 140454Z 12006KT 21/11 A2988 RMK A01 T02120108  RH  051%=      5-min Rain = 0
KNH1 140455Z 12005KT 21/11 A2988 RMK A01 T02130108  RH  051%=      5-min Rain = 0
KNH1 140456Z 11006KT 21/11 A2988 RMK A01 T02120108  RH  051%=      5-min Rain = 0
KNH1 140457Z 11005KT 21/11 A2988 RMK A01 T02120108  RH  051%=      5-min Rain = 0
KNH1 140458Z 11004KT 21/11 A2988 RMK A01 T02120108  RH  051%=      5-min Rain = 0
KNH1 140459Z 11005KT 21/11 A2988 RMK A01 T02110108  RH  052%=      5-min Rain = 0

Page generated in 0.087 seconds.